Wetterdaten: Freitag, 08.11.2019
Datum Zeit Temp. Aussen Temp. o. S. Temp +5cm Feuchte Auss Luftdruck Regen Sonnenschein Regendauer Solar Windben Empfang
08.11.2019 00:00 5,1 C 3,9 C 3,3 C 93 % 1003,6 hPa 0,0 l/m 0 min 0 min 0 W/m 6,4 km/h (2 Bft) 95,74 %
08.11.2019 00:02 5,1 C 4,4 C 3,3 C 93 % 1003,6 hPa 0,0 l/m 0 min 0 min 0 W/m 6,4 km/h (2 Bft) 93,48 %
08.11.2019 00:04 5,1 C 3,9 C 3,3 C 93 % 1003,6 hPa 0,0 l/m 0 min 0 min 0 W/m 6,4 km/h (2 Bft) 95,65 %
08.11.2019 00:08 5,0 C 3,9 C 3,3 C 94 % 1003,6 hPa 0,0 l/m 0 min 0 min 0 W/m 6,4 km/h (2 Bft) 95,74 %
08.11.2019 00:10 5,0 C 3,9 C 3,3 C 94 % 1003,6 hPa 0,0 l/m 0 min 0 min 0 W/m 3,2 km/h (1 Bft) 97,87 %
08.11.2019 00:12 5,0 C 3,9 C 3,3 C 94 % 1003,6 hPa 0,0 l/m 0 min 0 min 0 W/m 3,2 km/h (1 Bft) 97,87 %
08.11.2019 00:14 5,0 C 3,9 C 3,3 C 94 % 1003,6 hPa 0,0 l/m 0 min 0 min 0 W/m 6,4 km/h (2 Bft) 93,62 %
08.11.2019 00:16 5,0 C 3,9 C 3,3 C 94 % 1003,6 hPa 0,0 l/m 0 min 0 min 0 W/m 6,4 km/h (2 Bft) 97,83 %
08.11.2019 00:18 4,9 C 3,9 C 3,3 C 94 % 1003,7 hPa 0,0 l/m 0 min 0 min 0 W/m 3,2 km/h (1 Bft) 97,87 %
08.11.2019 00:20 4,9 C 3,9 C 3,3 C 94 % 1003,7 hPa 0,0 l/m 0 min 0 min 0 W/m 6,4 km/h (2 Bft) 97,87 %
08.11.2019 00:22 4,9 C 3,9 C 3,3 C 94 % 1003,7 hPa 0,0 l/m 0 min 0 min 0 W/m 6,4 km/h (2 Bft) 97,87 %
08.11.2019 00:24 4,9 C 3,9 C 3,3 C 94 % 1003,7 hPa 0,0 l/m 0 min 0 min 0 W/m 6,4 km/h (2 Bft) 97,87 %
08.11.2019 00:26 4,9 C 4,4 C 3,3 C 94 % 1003,7 hPa 0,0 l/m 0 min 0 min 0 W/m 6,4 km/h (2 Bft) 97,83 %
08.11.2019 00:28 4,9 C 4,4 C 3,3 C 94 % 1003,8 hPa 0,0 l/m 0 min 0 min 0 W/m 12,9 km/h (3 Bft) 97,87 %
08.11.2019 00:30 4,9 C 4,4 C 3,3 C 94 % 1003,8 hPa 0,0 l/m 0 min 0 min 0 W/m 12,9 km/h (3 Bft) 95,74 %
08.11.2019 00:32 4,9 C 4,4 C 3,3 C 94 % 1003,7 hPa 0,0 l/m 0 min 0 min 0 W/m 12,9 km/h (3 Bft) 97,87 %
08.11.2019 00:34 4,9 C 4,4 C 3,3 C 94 % 1003,7 hPa 0,0 l/m 0 min 0 min 0 W/m 6,4 km/h (2 Bft) 97,87 %
08.11.2019 00:36 4,9 C 4,4 C 3,3 C 94 % 1003,7 hPa 0,0 l/m 0 min 0 min 0 W/m 6,4 km/h (2 Bft) 97,87 %
08.11.2019 00:38 4,9 C 3,9 C 3,3 C 94 % 1003,7 hPa 0,0 l/m 0 min 0 min 0 W/m 3,2 km/h (1 Bft) 95,65 %
08.11.2019 00:40 4,8 C 3,9 C 3,3 C 94 % 1003,7 hPa 0,0 l/m 0 min 0 min 0 W/m 3,2 km/h (1 Bft) 97,87 %
08.11.2019 00:42 4,9 C 3,9 C 3,3 C 94 % 1003,7 hPa 0,0 l/m 0 min 0 min 0 W/m 6,4 km/h (2 Bft) 97,87 %
08.11.2019 00:44 4,8 C 3,9 C 3,3 C 94 % 1003,7 hPa 0,0 l/m 0 min 0 min 0 W/m 6,4 km/h (2 Bft) 100,00 %
08.11.2019 00:46 4,8 C 3,9 C 3,3 C 94 % 1003,7 hPa 0,0 l/m 0 min 0 min 0 W/m 6,4 km/h (2 Bft) 97,87 %
08.11.2019 00:48 4,8 C 3,9 C 3,3 C 94 % 1003,6 hPa 0,0 l/m 0 min 0 min 0 W/m 3,2 km/h (1 Bft) 95,74 %
08.11.2019 00:50 4,8 C 3,9 C 3,3 C 94 % 1003,6 hPa 0,0 l/m 0 min 0 min 0 W/m 6,4 km/h (2 Bft) 97,83 %
08.11.2019 00:52 4,8 C 3,9 C 3,3 C 94 % 1003,6 hPa 0,0 l/m 0 min 0 min 0 W/m 3,2 km/h (1 Bft) 100,00 %
08.11.2019 00:54 4,8 C 3,9 C 3,3 C 94 % 1003,7 hPa 0,0 l/m 0 min 0 min 0 W/m 3,2 km/h (1 Bft) 100,00 %
08.11.2019 00:56 4,8 C 3,9 C 3,3 C 94 % 1003,7 hPa 0,0 l/m 0 min 0 min 0 W/m 3,2 km/h (1 Bft) 97,87 %
08.11.2019 00:58 4,8 C 3,9 C 3,3 C 94 % 1003,6 hPa 0,0 l/m 0 min 0 min 0 W/m 3,2 km/h (1 Bft) 97,87 %
08.11.2019 01:00 4,8 C 3,9 C 2,8 C 94 % 1003,6 hPa 0,0 l/m 0 min 0 min 0 W/m 0,0 km/h (0 Bft) 100,00 %
08.11.2019 01:02 4,8 C 3,3 C 2,8 C 94 % 1003,6 hPa 0,0 l/m 0 min 0 min 0 W/m 0,0 km/h (0 Bft) 93,48 %
08.11.2019 01:04 4,8 C 3,3 C 2,8 C 94 % 1003,5 hPa 0,0 l/m 0 min 0 min 0 W/m 3,2 km/h (1 Bft) 97,87 %
08.11.2019 01:06 4,7 C 2,8 C 2,2 C 94 % 1003,6 hPa 0,0 l/m 0 min 0 min 0 W/m 0,0 km/h (0 Bft) 100,00 %
08.11.2019 01:08 4,7 C 2,8 C 2,2 C 94 % 1003,6 hPa 0,0 l/m 0 min 0 min 0 W/m 0,0 km/h (0 Bft) 100,00 %
08.11.2019 01:10 4,7 C 2,8 C 2,2 C 94 % 1003,6 hPa 0,0 l/m 0 min 0 min 0 W/m 0,0 km/h (0 Bft) 100,00 %
08.11.2019 01:12 4,7 C 2,8 C 2,2 C 94 % 1003,7 hPa 0,0 l/m 0 min 0 min 0 W/m 0,0 km/h (0 Bft) 100,00 %
08.11.2019 01:14 4,7 C 2,8 C 2,2 C 94 % 1003,7 hPa 0,0 l/m 0 min 0 min 0 W/m 3,2 km/h (1 Bft) 100,00 %
08.11.2019 01:16 4,6 C 2,8 C 2,2 C 94 % 1003,7 hPa 0,0 l/m 0 min 0 min 0 W/m 6,4 km/h (2 Bft) 97,87 %
08.11.2019 01:18 4,6 C 2,8 C 2,2 C 94 % 1003,7 hPa 0,0 l/m 0 min 0 min 0 W/m 6,4 km/h (2 Bft) 100,00 %
08.11.2019 01:20 4,5 C 2,8 C 2,2 C 94 % 1003,7 hPa 0,0 l/m 0 min 0 min 0 W/m 6,4 km/h (2 Bft) 100,00 %
08.11.2019 01:22 4,5 C 2,8 C 2,2 C 94 % 1003,8 hPa 0,0 l/m 0 min 0 min 0 W/m 6,4 km/h (2 Bft) 100,00 %
08.11.2019 01:24 4,4 C 2,8 C 2,8 C 94 % 1003,7 hPa 0,0 l/m 0 min 0 min 0 W/m 6,4 km/h (2 Bft) 97,83 %
08.11.2019 01:26 4,4 C 2,8 C 2,8 C 94 % 1003,8 hPa 0,0 l/m 0 min 0 min 0 W/m 6,4 km/h (2 Bft) 95,74 %
08.11.2019 01:28 4,4 C 2,8 C 2,8 C 94 % 1003,8 hPa 0,0 l/m 0 min 0 min 0 W/m 12,9 km/h (3 Bft) 97,87 %
08.11.2019 01:30 4,3 C 3,3 C 2,8 C 94 % 1003,9 hPa 0,0 l/m 0 min 0 min 0 W/m 12,9 km/h (3 Bft) 97,87 %
08.11.2019 01:32 4,3 C 3,3 C 2,8 C 94 % 1003,9 hPa 0,0 l/m 0 min 0 min 0 W/m 12,9 km/h (3 Bft) 100,00 %
08.11.2019 01:34 4,3 C 3,3 C 2,8 C 94 % 1003,9 hPa 0,0 l/m 0 min 0 min 0 W/m 12,9 km/h (3 Bft) 97,87 %
08.11.2019 01:36 4,2 C 3,3 C 2,8 C 94 % 1003,9 hPa 0,0 l/m 0 min 0 min 0 W/m 12,9 km/h (3 Bft) 97,83 %
08.11.2019 01:38 4,2 C 3,3 C 2,8 C 94 % 1003,9 hPa 0,0 l/m 0 min 0 min 0 W/m 12,9 km/h (3 Bft) 100,00 %
08.11.2019 01:40 4,2 C 3,3 C 2,8 C 94 % 1003,8 hPa 0,0 l/m 0 min 0 min 0 W/m 12,9 km/h (3 Bft) 100,00 %
08.11.2019 01:42 4,2 C 2,8 C 2,8 C 94 % 1003,8 hPa 0,0 l/m 0 min 0 min 0 W/m 16,1 km/h (3 Bft) 100,00 %
08.11.2019 01:44 4,1 C 2,8 C 2,8 C 94 % 1003,9 hPa 0,0 l/m 0 min 0 min 0 W/m 12,9 km/h (3 Bft) 97,87 %
08.11.2019 01:46 4,1 C 2,8 C 2,8 C 94 % 1003,9 hPa 0,0 l/m 0 min 0 min 0 W/m 12,9 km/h (3 Bft) 95,74 %
08.11.2019 01:48 4,1 C 2,8 C 2,8 C 94 % 1003,9 hPa 0,0 l/m 0 min 0 min 0 W/m 16,1 km/h (3 Bft) 97,83 %
08.11.2019 01:50 4,1 C 2,8 C 2,8 C 94 % 1003,9 hPa 0,0 l/m 0 min 0 min 0 W/m 16,1 km/h (3 Bft) 97,87 %
08.11.2019 01:52 4,0 C 2,8 C 2,8 C 94 % 1004,0 hPa 0,0 l/m 0 min 0 min 0 W/m 6,4 km/h (2 Bft) 95,74 %
08.11.2019 01:54 4,0 C 2,8 C 2,8 C 94 % 1004,0 hPa 0,0 l/m 0 min 0 min 0 W/m 19,3 km/h (3 Bft) 97,87 %
08.11.2019 01:56 4,0 C 2,8 C 2,2 C 94 % 1004,0 hPa 0,0 l/m 0 min 0 min 0 W/m 16,1 km/h (3 Bft) 97,87 %
08.11.2019 01:58 3,9 C 2,8 C 2,2 C 94 % 1004,0 hPa 0,0 l/m 0 min 0 min 0 W/m 16,1 km/h (3 Bft) 95,74 %
08.11.2019 02:00 3,9 C 2,8 C 2,2 C 94 % 1004,0 hPa 0,0 l/m 0 min 0 min 0 W/m 16,1 km/h (3 Bft) 97,83 %
08.11.2019 02:02 3,9 C 2,8 C 2,2 C 94 % 1004,0 hPa 0,0 l/m 0 min 0 min 0 W/m 22,5 km/h (4 Bft) 95,74 %
08.11.2019 02:04 3,9 C 2,8 C 2,2 C 94 % 1004,1 hPa 0,0 l/m 0 min 0 min 0 W/m 16,1 km/h (3 Bft) 95,74 %
08.11.2019 02:06 3,8 C 2,8 C 2,2 C 95 % 1004,1 hPa 0,0 l/m 0 min 0 min 0 W/m 12,9 km/h (3 Bft) 95,74 %
08.11.2019 02:08 3,8 C 2,8 C 2,2 C 95 % 1004,1 hPa 0,0 l/m 0 min 0 min 0 W/m 12,9 km/h (3 Bft) 95,74 %
08.11.2019 02:10 3,8 C 2,8 C 2,8 C 95 % 1004,2 hPa 0,0 l/m 0 min 0 min 0 W/m 16,1 km/h (3 Bft) 95,65 %
08.11.2019 02:12 3,8 C 2,8 C 2,8 C 95 % 1004,1 hPa 0,0 l/m 0 min 0 min 0 W/m 16,1 km/h (3 Bft) 95,74 %
08.11.2019 02:14 3,8 C 2,8 C 2,8 C 95 % 1004,1 hPa 0,0 l/m 0 min 0 min 0 W/m 19,3 km/h (3 Bft) 95,74 %
08.11.2019 02:16 3,8 C 2,8 C 2,8 C 95 % 1004,2 hPa 0,0 l/m 0 min 0 min 0 W/m 16,1 km/h (3 Bft) 95,74 %
08.11.2019 02:18 3,8 C 2,8 C 2,8 C 95 % 1004,2 hPa 0,0 l/m 0 min 0 min 0 W/m 12,9 km/h (3 Bft) 95,74 %
08.11.2019 02:20 3,8 C 3,3 C 2,8 C 95 % 1004,2 hPa 0,0 l/m 0 min 0 min 0 W/m 12,9 km/h (3 Bft) 95,74 %
08.11.2019 02:22 3,8 C 2,8 C 2,8 C 95 % 1004,2 hPa 0,0 l/m 0 min 0 min 0 W/m 12,9 km/h (3 Bft) 95,74 %
08.11.2019 02:24 3,8 C 2,8 C 2,8 C 95 % 1004,3 hPa 0,0 l/m 0 min 0 min 0 W/m 12,9 km/h (3 Bft) 95,65 %
08.11.2019 02:26 3,8 C 2,8 C 2,8 C 95 % 1004,2 hPa 0,0 l/m 0 min 0 min 0 W/m 16,1 km/h (3 Bft) 95,74 %
08.11.2019 02:28 3,8 C 3,3 C 2,8 C 95 % 1004,3 hPa 0,0 l/m 0 min 0 min 0 W/m 22,5 km/h (4 Bft) 97,87 %
08.11.2019 02:30 3,8 C 3,3 C 2,8 C 95 % 1004,2 hPa 0,0 l/m 0 min 0 min 0 W/m 12,9 km/h (3 Bft) 97,87 %
08.11.2019 02:32 3,8 C 3,3 C 2,8 C 95 % 1004,2 hPa 0,0 l/m 0 min 0 min 0 W/m 16,1 km/h (3 Bft) 97,87 %
08.11.2019 02:34 3,8 C 3,3 C 2,8 C 95 % 1004,2 hPa 0,0 l/m 0 min 0 min 0 W/m 6,4 km/h (2 Bft) 95,65 %
08.11.2019 02:36 3,8 C 3,3 C 2,8 C 95 % 1004,2 hPa 0,0 l/m 0 min 0 min 0 W/m 12,9 km/h (3 Bft) 97,87 %
08.11.2019 02:38 3,8 C 3,3 C 2,8 C 95 % 1004,2 hPa 0,0 l/m 0 min 0 min 0 W/m 9,7 km/h (2 Bft) 97,87 %
08.11.2019 02:40 3,8 C 3,3 C 2,8 C 95 % 1004,2 hPa 0,0 l/m 0 min 0 min 0 W/m 22,5 km/h (4 Bft) 97,87 %
08.11.2019 02:42 3,8 C 3,3 C 2,8 C 95 % 1004,2 hPa 0,0 l/m 0 min 0 min 0 W/m 6,4 km/h (2 Bft) 97,87 %
08.11.2019 02:44 3,8 C 3,3 C 2,8 C 95 % 1004,2 hPa 0,0 l/m 0 min 0 min 0 W/m 19,3 km/h (3 Bft) 95,74 %
08.11.2019 02:46 3,8 C 3,3 C 2,8 C 95 % 1004,1 hPa 0,0 l/m 0 min 0 min 0 W/m 19,3 km/h (3 Bft) 97,83 %
08.11.2019 02:48 3,8 C 3,3 C 2,8 C 96 % 1004,1 hPa 0,0 l/m 0 min 0 min 0 W/m 16,1 km/h (3 Bft) 97,87 %
08.11.2019 02:50 3,8 C 3,3 C 2,8 C 96 % 1004,1 hPa 0,0 l/m 0 min 0 min 0 W/m 6,4 km/h (2 Bft) 97,87 %
08.11.2019 02:52 3,8 C 3,3 C 2,8 C 96 % 1004,1 hPa 0,0 l/m 0 min 0 min 0 W/m 12,9 km/h (3 Bft) 97,87 %
08.11.2019 02:54 3,8 C 3,3 C 2,8 C 96 % 1004,1 hPa 0,0 l/m 0 min 0 min 0 W/m 6,4 km/h (2 Bft) 95,74 %
08.11.2019 02:56 3,8 C 3,3 C 2,8 C 96 % 1004,1 hPa 0,0 l/m 0 min 0 min 0 W/m 22,5 km/h (4 Bft) 95,74 %
08.11.2019 02:58 3,8 C 3,3 C 2,8 C 96 % 1004,1 hPa 0,0 l/m 0 min 0 min 0 W/m 16,1 km/h (3 Bft) 95,65 %
08.11.2019 03:00 3,8 C 3,3 C 2,8 C 96 % 1004,1 hPa 0,0 l/m 0 min 0 min 0 W/m 16,1 km/h (3 Bft) 97,87 %
08.11.2019 03:02 3,8 C 3,3 C 2,8 C 96 % 1004,2 hPa 0,0 l/m 0 min 0 min 0 W/m 22,5 km/h (4 Bft) 97,87 %
08.11.2019 03:04 3,9 C 3,3 C 2,8 C 96 % 1004,2 hPa 0,0 l/m 0 min 0 min 0 W/m 16,1 km/h (3 Bft) 97,87 %
08.11.2019 03:06 3,9 C 3,3 C 2,8 C 96 % 1004,1 hPa 0,0 l/m 0 min 0 min 0 W/m 12,9 km/h (3 Bft) 93,62 %
08.11.2019 03:08 3,9 C 3,3 C 2,8 C 96 % 1004,1 hPa 0,0 l/m 0 min 0 min 0 W/m 16,1 km/h (3 Bft) 95,65 %
08.11.2019 03:10 3,9 C 3,3 C 2,8 C 96 % 1004,1 hPa 0,0 l/m 0 min 0 min 0 W/m 12,9 km/h (3 Bft) 97,87 %
08.11.2019 03:12 3,9 C 3,3 C 2,8 C 96 % 1004,2 hPa 0,0 l/m 0 min 0 min 0 W/m 12,9 km/h (3 Bft) 97,87 %
08.11.2019 03:14 3,9 C 3,3 C 2,8 C 96 % 1004,3 hPa 0,0 l/m 0 min 0 min 0 W/m 16,1 km/h (3 Bft) 97,87 %
08.11.2019 03:16 3,9 C 3,3 C 2,8 C 96 % 1004,3 hPa 0,0 l/m 0 min 0 min 0 W/m 12,9 km/h (3 Bft) 97,87 %
08.11.2019 03:18 3,9 C 3,3 C 2,8 C 96 % 1004,4 hPa 0,0 l/m 0 min 0 min 0 W/m 12,9 km/h (3 Bft) 97,87 %
08.11.2019 03:20 3,9 C 3,3 C 2,8 C 96 % 1004,4 hPa 0,0 l/m 0 min 0 min 0 W/m 12,9 km/h (3 Bft) 97,83 %
08.11.2019 03:22 3,8 C 3,3 C 2,8 C 96 % 1004,4 hPa 0,0 l/m 0 min 0 min 0 W/m 16,1 km/h (3 Bft) 95,74 %
08.11.2019 03:24 3,9 C 3,3 C 2,8 C 96 % 1004,4 hPa 0,0 l/m 0 min 0 min 0 W/m 12,9 km/h (3 Bft) 95,74 %
08.11.2019 03:26 3,8 C 3,3 C 2,8 C 96 % 1004,4 hPa 0,0 l/m 0 min 0 min 0 W/m 12,9 km/h (3 Bft) 95,74 %
08.11.2019 03:28 3,8 C 3,3 C 2,8 C 96 % 1004,5 hPa 0,0 l/m 0 min 0 min 0 W/m 16,1 km/h (3 Bft) 97,87 %
08.11.2019 03:30 3,8 C 3,3 C 2,8 C 96 % 1004,4 hPa 0,0 l/m 0 min 0 min 0 W/m 12,9 km/h (3 Bft) 97,87 %
08.11.2019 03:32 3,8 C 2,8 C 2,8 C 96 % 1004,4 hPa 0,0 l/m 0 min 0 min 0 W/m 6,4 km/h (2 Bft) 97,83 %
08.11.2019 03:34 3,8 C 2,8 C 2,8 C 96 % 1004,4 hPa 0,0 l/m 0 min 0 min 0 W/m 16,1 km/h (3 Bft) 97,87 %
08.11.2019 03:36 3,8 C 2,8 C 2,8 C 96 % 1004,4 hPa 0,0 l/m 0 min 0 min 0 W/m 6,4 km/h (2 Bft) 97,87 %
08.11.2019 03:38 3,8 C 2,8 C 2,8 C 96 % 1004,4 hPa 0,0 l/m 0 min 0 min 0 W/m 6,4 km/h (2 Bft) 97,87 %
08.11.2019 03:40 3,8 C 2,8 C 2,8 C 96 % 1004,5 hPa 0,0 l/m 0 min 0 min 0 W/m 12,9 km/h (3 Bft) 97,87 %
08.11.2019 03:42 3,8 C 2,8 C 2,8 C 96 % 1004,5 hPa 0,0 l/m 0 min 0 min 0 W/m 16,1 km/h (3 Bft) 100,00 %
08.11.2019 03:44 3,8 C 2,8 C 2,8 C 96 % 1004,5 hPa 0,0 l/m 0 min 0 min 0 W/m 16,1 km/h (3 Bft) 84,78 %
08.11.2019 03:46 3,8 C 2,8 C 2,8 C 96 % 1004,5 hPa 0,0 l/m 0 min 0 min 0 W/m 6,4 km/h (2 Bft) 71,11 %
08.11.2019 03:48 3,8 C 2,8 C 2,8 C 96 % 1004,6 hPa 0,0 l/m 0 min 0 min 0 W/m 6,4 km/h (2 Bft) 95,74 %
08.11.2019 03:50 3,8 C 2,8 C 2,8 C 96 % 1004,6 hPa 0,0 l/m 0 min 0 min 0 W/m 12,9 km/h (3 Bft) 100,00 %
08.11.2019 03:52 3,7 C 2,8 C 2,2 C 96 % 1004,6 hPa 0,0 l/m 0 min 0 min 0 W/m 6,4 km/h (2 Bft) 100,00 %
08.11.2019 03:54 3,7 C 2,8 C 2,2 C 96 % 1004,6 hPa 0,0 l/m 0 min 0 min 0 W/m 6,4 km/h (2 Bft) 100,00 %
08.11.2019 03:56 3,7 C 2,8 C 2,2 C 96 % 1004,6 hPa 0,0 l/m 0 min 0 min 0 W/m 12,9 km/h (3 Bft) 97,83 %
08.11.2019 03:58 3,7 C 2,8 C 2,2 C 96 % 1004,6 hPa 0,0 l/m 0 min 0 min 0 W/m 12,9 km/h (3 Bft) 100,00 %
08.11.2019 04:00 3,7 C 2,8 C 2,2 C 96 % 1004,6 hPa 0,0 l/m 0 min 0 min 0 W/m 12,9 km/h (3 Bft) 100,00 %
08.11.2019 04:02 3,7 C 2,8 C 2,2 C 96 % 1004,6 hPa 0,0 l/m 0 min 0 min 0 W/m 16,1 km/h (3 Bft) 100,00 %
08.11.2019 04:04 3,7 C 2,8 C 2,2 C 96 % 1004,6 hPa 0,0 l/m 0 min 0 min 0 W/m 12,9 km/h (3 Bft) 100,00 %
08.11.2019 04:06 3,7 C 2,8 C 2,2 C 96 % 1004,5 hPa 0,0 l/m 0 min 0 min 0 W/m 6,4 km/h (2 Bft) 95,74 %
08.11.2019 04:08 3,6 C 2,8 C 2,2 C 96 % 1004,6 hPa 0,0 l/m 0 min 0 min 0 W/m 3,2 km/h (1 Bft) 100,00 %
08.11.2019 04:10 3,6 C 2,8 C 2,2 C 96 % 1004,6 hPa 0,0 l/m 0 min 0 min 0 W/m 3,2 km/h (1 Bft) 97,87 %
08.11.2019 04:12 3,6 C 2,8 C 2,2 C 96 % 1004,5 hPa 0,0 l/m 0 min 0 min 0 W/m 6,4 km/h (2 Bft) 97,87 %
08.11.2019 04:14 3,6 C 2,8 C 2,2 C 96 % 1004,5 hPa 0,0 l/m 0 min 0 min 0 W/m 6,4 km/h (2 Bft) 100,00 %
08.11.2019 04:16 3,6 C 2,8 C 2,2 C 96 % 1004,6 hPa 0,0 l/m 0 min 0 min 0 W/m 6,4 km/h (2 Bft) 97,87 %
08.11.2019 04:18 3,6 C 2,8 C 2,2 C 96 % 1004,6 hPa 0,0 l/m 0 min 0 min 0 W/m 6,4 km/h (2 Bft) 97,83 %
08.11.2019 04:20 3,6 C 2,8 C 2,2 C 96 % 1004,6 hPa 0,0 l/m 0 min 0 min 0 W/m 0,0 km/h (0 Bft) 97,87 %
08.11.2019 04:22 3,6 C 2,8 C 2,2 C 96 % 1004,6 hPa 0,0 l/m 0 min 0 min 0 W/m 0,0 km/h (0 Bft) 97,87 %
08.11.2019 04:24 3,6 C 2,2 C 2,2 C 96 % 1004,6 hPa 0,0 l/m 0 min 0 min 0 W/m 0,0 km/h (0 Bft) 97,87 %
08.11.2019 04:26 3,5 C 2,2 C 2,2 C 96 % 1004,5 hPa 0,0 l/m 0 min 0 min 0 W/m 0,0 km/h (0 Bft) 97,87 %
08.11.2019 04:28 3,5 C 2,2 C 1,7 C 96 % 1004,6 hPa 0,0 l/m 0 min 0 min 0 W/m 0,0 km/h (0 Bft) 95,74 %
08.11.2019 04:30 3,5 C 2,2 C 1,7 C 96 % 1004,5 hPa 0,0 l/m 0 min 0 min 0 W/m 0,0 km/h (0 Bft) 97,83 %
08.11.2019 04:32 3,4 C 2,2 C 1,7 C 96 % 1004,6 hPa 0,0 l/m 0 min 0 min 0 W/m 0,0 km/h (0 Bft) 97,87 %
08.11.2019 04:34 3,4 C 2,2 C 1,7 C 96 % 1004,6 hPa 0,0 l/m 0 min 0 min 0 W/m 0,0 km/h (0 Bft) 97,87 %
08.11.2019 04:36 3,4 C 2,2 C 2,2 C 96 % 1004,6 hPa 0,0 l/m 0 min 0 min 0 W/m 12,9 km/h (3 Bft) 97,87 %
08.11.2019 04:38 3,4 C 2,2 C 2,2 C 96 % 1004,6 hPa 0,0 l/m 0 min 0 min 0 W/m 6,4 km/h (2 Bft) 93,62 %
08.11.2019 04:40 3,4 C 2,2 C 2,2 C 96 % 1004,7 hPa 0,0 l/m 0 min 0 min 0 W/m 3,2 km/h (1 Bft) 97,87 %
08.11.2019 04:42 3,4 C 2,2 C 1,7 C 96 % 1004,6 hPa 0,0 l/m 0 min 0 min 0 W/m 3,2 km/h (1 Bft) 69,57 %
08.11.2019 04:44 3,3 C 2,2 C 1,7 C 96 % 1004,6 hPa 0,0 l/m 0 min 0 min 0 W/m 3,2 km/h (1 Bft) 81,08 %
08.11.2019 04:46 3,3 C 2,2 C 1,7 C 96 % 1004,6 hPa 0,0 l/m 0 min 0 min 0 W/m 3,2 km/h (1 Bft) 97,87 %
08.11.2019 04:48 3,3 C 2,2 C 1,7 C 96 % 1004,6 hPa 0,0 l/m 0 min 0 min 0 W/m 12,9 km/h (3 Bft) 97,87 %
08.11.2019 04:50 3,3 C 2,2 C 2,2 C 96 % 1004,6 hPa 0,0 l/m 0 min 0 min 0 W/m 3,2 km/h (1 Bft) 97,87 %
08.11.2019 04:52 3,3 C 2,2 C 2,2 C 96 % 1004,6 hPa 0,0 l/m 0 min 0 min 0 W/m 3,2 km/h (1 Bft) 95,74 %
08.11.2019 04:54 3,3 C 2,2 C 2,2 C 96 % 1004,6 hPa 0,0 l/m 0 min 0 min 0 W/m 12,9 km/h (3 Bft) 95,65 %
08.11.2019 04:56 3,2 C 2,2 C 2,2 C 96 % 1004,6 hPa 0,0 l/m 0 min 0 min 0 W/m 6,4 km/h (2 Bft) 97,87 %
08.11.2019 04:58 3,2 C 2,2 C 1,7 C 96 % 1004,6 hPa 0,0 l/m 0 min 0 min 0 W/m 3,2 km/h (1 Bft) 97,87 %
08.11.2019 05:00 3,2 C 2,2 C 1,7 C 96 % 1004,6 hPa 0,0 l/m 0 min 0 min 0 W/m 6,4 km/h (2 Bft) 100,00 %
08.11.2019 05:02 3,2 C 2,2 C 2,2 C 96 % 1004,6 hPa 0,0 l/m 0 min 0 min 0 W/m 12,9 km/h (3 Bft) 100,00 %
08.11.2019 05:04 3,2 C 2,2 C 2,2 C 96 % 1004,6 hPa 0,0 l/m 0 min 0 min 0 W/m 6,4 km/h (2 Bft) 100,00 %
08.11.2019 05:06 3,2 C 2,2 C 2,2 C 96 % 1004,7 hPa 0,0 l/m 0 min 0 min 0 W/m 16,1 km/h (3 Bft) 100,00 %
08.11.2019 05:08 3,2 C 2,2 C 2,2 C 96 % 1004,7 hPa 0,0 l/m 0 min 0 min 0 W/m 6,4 km/h (2 Bft) 97,87 %
08.11.2019 05:10 3,2 C 2,2 C 2,2 C 96 % 1004,7 hPa 0,0 l/m 0 min 0 min 0 W/m 6,4 km/h (2 Bft) 100,00 %
08.11.2019 05:12 3,2 C 2,2 C 2,2 C 96 % 1004,6 hPa 0,2 l/m 0 min 0 min 0 W/m 6,4 km/h (2 Bft) 100,00 %
08.11.2019 05:14 3,1 C 2,2 C 2,2 C 96 % 1004,7 hPa 0,0 l/m 0 min 0 min 0 W/m 12,9 km/h (3 Bft) 97,87 %
08.11.2019 05:16 3,1 C 2,2 C 2,2 C 96 % 1004,7 hPa 0,0 l/m 0 min 0 min 0 W/m 6,4 km/h (2 Bft) 100,00 %
08.11.2019 05:18 3,1 C 2,2 C 2,2 C 96 % 1004,7 hPa 0,0 l/m 0 min 0 min 0 W/m 6,4 km/h (2 Bft) 97,87 %
08.11.2019 05:20 3,1 C 2,2 C 2,2 C 96 % 1004,7 hPa 0,0 l/m 0 min 0 min 0 W/m 6,4 km/h (2 Bft) 100,00 %
08.11.2019 05:22 3,1 C 2,2 C 2,2 C 96 % 1004,7 hPa 0,0 l/m 0 min 0 min 0 W/m 12,9 km/h (3 Bft) 100,00 %
08.11.2019 05:24 3,1 C 2,2 C 2,2 C 96 % 1004,7 hPa 0,0 l/m 0 min 0 min 0 W/m 12,9 km/h (3 Bft) 92,31 %
08.11.2019 05:26 3,1 C 2,2 C 2,2 C 96 % 1004,8 hPa 0,0 l/m 0 min 0 min 0 W/m 6,4 km/h (2 Bft) 97,87 %
08.11.2019 05:28 3,1 C 2,2 C 1,7 C 96 % 1004,8 hPa 0,0 l/m 0 min 0 min 0 W/m 12,9 km/h (3 Bft) 100,00 %
08.11.2019 05:30 3,1 C 2,2 C 2,2 C 96 % 1004,9 hPa 0,0 l/m 0 min 0 min 0 W/m 6,4 km/h (2 Bft) 100,00 %
08.11.2019 05:32 3,1 C 2,2 C 2,2 C 96 % 1004,9 hPa 0,0 l/m 0 min 0 min 0 W/m 6,4 km/h (2 Bft) 100,00 %
08.11.2019 05:34 3,1 C 2,2 C 2,2 C 96 % 1004,9 hPa 0,0 l/m 0 min 0 min 0 W/m 16,1 km/h (3 Bft) 100,00 %
08.11.2019 05:36 3,1 C 2,8 C 2,2 C 96 % 1004,9 hPa 0,0 l/m 0 min 0 min 0 W/m 12,9 km/h (3 Bft) 97,87 %
08.11.2019 05:38 3,1 C 2,8 C 2,2 C 96 % 1005,0 hPa 0,0 l/m 0 min 0 min 0 W/m 12,9 km/h (3 Bft) 100,00 %
08.11.2019 05:40 3,1 C 2,8 C 2,2 C 97 % 1005,0 hPa 0,0 l/m 0 min 0 min 0 W/m 6,4 km/h (2 Bft) 97,83 %
08.11.2019 05:42 3,2 C 2,8 C 2,2 C 97 % 1005,0 hPa 0,0 l/m 0 min 0 min 0 W/m 12,9 km/h (3 Bft) 97,87 %
08.11.2019 05:44 3,2 C 2,8 C 2,2 C 97 % 1005,0 hPa 0,0 l/m 0 min 0 min 0 W/m 6,4 km/h (2 Bft) 93,62 %
08.11.2019 05:46 3,2 C 2,8 C 2,2 C 97 % 1005,1 hPa 0,0 l/m 0 min 0 min 0 W/m 6,4 km/h (2 Bft) 95,74 %
08.11.2019 05:48 3,2 C 2,8 C 2,2 C 97 % 1005,1 hPa 0,0 l/m 0 min 0 min 0 W/m 6,4 km/h (2 Bft) 95,74 %
08.11.2019 05:50 3,2 C 2,8 C 2,2 C 97 % 1005,0 hPa 0,0 l/m 0 min 0 min 0 W/m 12,9 km/h (3 Bft) 95,74 %
08.11.2019 05:52 3,2 C 2,8 C 2,2 C 97 % 1005,0 hPa 0,0 l/m 0 min 0 min 0 W/m 6,4 km/h (2 Bft) 95,65 %
08.11.2019 05:54 3,3 C 2,8 C 2,2 C 97 % 1005,0 hPa 0,0 l/m 0 min 0 min 0 W/m 6,4 km/h (2 Bft) 95,74 %
08.11.2019 05:56 3,3 C 2,8 C 2,2 C 97 % 1005,1 hPa 0,0 l/m 0 min 0 min 0 W/m 3,2 km/h (1 Bft) 95,74 %
08.11.2019 05:58 3,3 C 2,8 C 2,2 C 97 % 1005,1 hPa 0,0 l/m 0 min 0 min 0 W/m 6,4 km/h (2 Bft) 95,74 %
08.11.2019 06:00 3,3 C 2,8 C 2,2 C 97 % 1005,1 hPa 0,0 l/m 0 min 0 min 0 W/m 12,9 km/h (3 Bft) 93,62 %
08.11.2019 06:02 3,3 C 2,8 C 2,2 C 97 % 1005,1 hPa 0,0 l/m 0 min 0 min 0 W/m 6,4 km/h (2 Bft) 95,74 %
08.11.2019 06:04 3,3 C 2,8 C 2,2 C 97 % 1005,1 hPa 0,0 l/m 0 min 0 min 0 W/m 3,2 km/h (1 Bft) 95,65 %
08.11.2019 06:08 3,3 C 2,8 C 2,2 C 97 % 1005,1 hPa 0,0 l/m 0 min 0 min 0 W/m 6,4 km/h (2 Bft) 94,68 %
08.11.2019 06:10 3,3 C 2,8 C 2,2 C 97 % 1005,1 hPa 0,0 l/m 0 min 0 min 0 W/m 16,1 km/h (3 Bft) 95,74 %
08.11.2019 06:12 3,3 C 2,8 C 2,2 C 97 % 1005,1 hPa 0,0 l/m 0 min 0 min 0 W/m 6,4 km/h (2 Bft) 95,74 %
08.11.2019 06:14 3,3 C 2,8 C 2,2 C 97 % 1005,1 hPa 0,0 l/m 0 min 0 min 0 W/m 12,9 km/h (3 Bft) 95,65 %
08.11.2019 06:16 3,3 C 2,8 C 2,2 C 97 % 1005,1 hPa 0,0 l/m 0 min 0 min 0 W/m 3,2 km/h (1 Bft) 95,74 %
08.11.2019 06:18 3,3 C 2,8 C 2,2 C 97 % 1005,1 hPa 0,0 l/m 0 min 0 min 0 W/m 6,4 km/h (2 Bft) 93,62 %
08.11.2019 06:20 3,3 C 2,8 C 2,2 C 97 % 1005,2 hPa 0,0 l/m 0 min 0 min 0 W/m 12,9 km/h (3 Bft) 91,49 %
08.11.2019 06:22 3,3 C 2,8 C 2,2 C 97 % 1005,1 hPa 0,0 l/m 0 min 0 min 0 W/m 3,2 km/h (1 Bft) 95,74 %
08.11.2019 06:24 3,3 C 2,8 C 2,2 C 97 % 1005,2 hPa 0,0 l/m 0 min 0 min 0 W/m 3,2 km/h (1 Bft) 95,74 %
08.11.2019 06:26 3,4 C 2,8 C 2,2 C 97 % 1005,1 hPa 0,0 l/m 0 min 0 min 0 W/m 3,2 km/h (1 Bft) 95,65 %
08.11.2019 06:28 3,4 C 2,8 C 2,2 C 97 % 1005,1 hPa 0,0 l/m 0 min 0 min 0 W/m 6,4 km/h (2 Bft) 97,87 %
08.11.2019 06:30 3,4 C 2,8 C 2,2 C 97 % 1005,1 hPa 0,0 l/m 0 min 0 min 0 W/m 3,2 km/h (1 Bft) 97,87 %
08.11.2019 06:32 3,4 C 2,8 C 2,2 C 97 % 1005,1 hPa 0,0 l/m 0 min 0 min 0 W/m 6,4 km/h (2 Bft) 97,87 %
08.11.2019 06:34 3,4 C 2,8 C 2,2 C 97 % 1005,2 hPa 0,0 l/m 0 min 0 min 0 W/m 6,4 km/h (2 Bft) 97,87 %
08.11.2019 06:36 3,4 C 2,8 C 2,2 C 97 % 1005,2 hPa 0,0 l/m 0 min 0 min 0 W/m 6,4 km/h (2 Bft) 97,87 %
08.11.2019 06:38 3,4 C 2,8 C 2,2 C 97 % 1005,3 hPa 0,0 l/m 0 min 0 min 0 W/m 3,2 km/h (1 Bft) 93,48 %
08.11.2019 06:40 3,4 C 2,8 C 2,2 C 97 % 1005,3 hPa 0,0 l/m 0 min 0 min 0 W/m 3,2 km/h (1 Bft) 97,87 %
08.11.2019 06:42 3,4 C 2,8 C 2,2 C 97 % 1005,3 hPa 0,0 l/m 0 min 0 min 0 W/m 6,4 km/h (2 Bft) 97,87 %
08.11.2019 06:44 3,4 C 2,8 C 2,2 C 97 % 1005,4 hPa 0,0 l/m 0 min 0 min 0 W/m 6,4 km/h (2 Bft) 97,87 %
08.11.2019 06:46 3,4 C 2,8 C 2,2 C 97 % 1005,4 hPa 0,0 l/m 0 min 2 min 0 W/m 6,4 km/h (2 Bft) 97,87 %
08.11.2019 06:48 3,4 C 2,8 C 2,2 C 97 % 1005,4 hPa 0,0 l/m 0 min 0 min 0 W/m 12,9 km/h (3 Bft) 95,74 %
08.11.2019 06:50 3,4 C 2,8 C 2,2 C 97 % 1005,4 hPa 0,0 l/m 0 min 0 min 0 W/m 6,4 km/h (2 Bft) 97,83 %
08.11.2019 06:52 3,4 C 2,8 C 2,2 C 97 % 1005,5 hPa 0,0 l/m 0 min 0 min 0 W/m 6,4 km/h (2 Bft) 97,87 %
08.11.2019 06:54 3,4 C 2,8 C 2,2 C 97 % 1005,5 hPa 0,0 l/m 0 min 0 min 0 W/m 12,9 km/h (3 Bft) 95,74 %
08.11.2019 06:56 3,4 C 2,8 C 2,2 C 97 % 1005,5 hPa 0,0 l/m 0 min 0 min 0 W/m 6,4 km/h (2 Bft) 97,87 %
08.11.2019 06:58 3,4 C 2,8 C 2,2 C 97 % 1005,5 hPa 0,0 l/m 0 min 0 min 0 W/m 12,9 km/h (3 Bft) 95,74 %
08.11.2019 07:00 3,3 C 2,8 C 2,2 C 97 % 1005,5 hPa 0,0 l/m 0 min 0 min 0 W/m 12,9 km/h (3 Bft) 95,74 %
08.11.2019 07:02 3,4 C 2,8 C 2,2 C 97 % 1005,5 hPa 0,0 l/m 0 min 0 min 0 W/m 6,4 km/h (2 Bft) 97,83 %
08.11.2019 07:04 3,4 C 2,8 C 2,2 C 97 % 1005,5 hPa 0,0 l/m 0 min 0 min 0 W/m 6,4 km/h (2 Bft) 95,74 %
08.11.2019 07:06 3,3 C 2,8 C 2,2 C 97 % 1005,5 hPa 0,0 l/m 0 min 0 min 0 W/m 12,9 km/h (3 Bft) 97,87 %
08.11.2019 07:08 3,4 C 2,8 C 2,2 C 97 % 1005,5 hPa 0,0 l/m 0 min 0 min 0 W/m 12,9 km/h (3 Bft) 97,87 %
08.11.2019 07:10 3,4 C 2,8 C 2,2 C 97 % 1005,5 hPa 0,0 l/m 0 min 0 min 0 W/m 6,4 km/h (2 Bft) 95,74 %
08.11.2019 07:12 3,4 C 2,8 C 2,2 C 97 % 1005,6 hPa 0,0 l/m 0 min 0 min 0 W/m 3,2 km/h (1 Bft) 97,83 %
08.11.2019 07:14 3,4 C 2,8 C 2,2 C 97 % 1005,6 hPa 0,0 l/m 0 min 0 min 0 W/m 3,2 km/h (1 Bft) 97,87 %
08.11.2019 07:16 3,3 C 2,8 C 2,2 C 97 % 1005,6 hPa 0,0 l/m 0 min 0 min 0 W/m 0,0 km/h (0 Bft) 97,87 %
08.11.2019 07:18 3,3 C 2,8 C 2,2 C 97 % 1005,7 hPa 0,0 l/m 0 min 0 min 0 W/m 0,0 km/h (0 Bft) 97,87 %
08.11.2019 07:20 3,3 C 2,2 C 2,2 C 97 % 1005,6 hPa 0,0 l/m 0 min 0 min 0 W/m 0,0 km/h (0 Bft) 97,87 %
08.11.2019 07:22 3,3 C 2,2 C 2,2 C 97 % 1005,7 hPa 0,0 l/m 0 min 0 min 0 W/m 0,0 km/h (0 Bft) 95,74 %
08.11.2019 07:24 3,3 C 2,2 C 1,7 C 97 % 1005,7 hPa 0,0 l/m 0 min 0 min 0 W/m 0,0 km/h (0 Bft) 95,65 %
08.11.2019 07:26 3,3 C 2,2 C 1,7 C 97 % 1005,8 hPa 0,0 l/m 0 min 0 min 0 W/m 0,0 km/h (0 Bft) 96,77 %
08.11.2019 07:28 3,3 C 2,2 C 1,7 C 97 % 1005,8 hPa 0,0 l/m 0 min 0 min 0 W/m 0,0 km/h (0 Bft) 93,48 %
08.11.2019 07:30 3,3 C 2,2 C 1,7 C 97 % 1005,8 hPa 0,0 l/m 0 min 0 min 0 W/m 0,0 km/h (0 Bft) 97,87 %
08.11.2019 07:32 3,3 C 1,7 C 1,7 C 97 % 1005,8 hPa 0,0 l/m 0 min 0 min 0 W/m 0,0 km/h (0 Bft) 44,74 %
08.11.2019 07:34 3,3 C 1,7 C 1,1 C 97 % 1005,8 hPa 0,0 l/m 0 min 0 min 0 W/m 0,0 km/h (0 Bft) 95,74 %
08.11.2019 07:36 3,3 C 1,7 C 1,1 C 97 % 1005,8 hPa 0,0 l/m 0 min 0 min 0 W/m 0,0 km/h (0 Bft) 100,00 %
08.11.2019 07:38 3,2 C 1,7 C 1,1 C 97 % 1005,8 hPa 0,0 l/m 0 min 0 min 0 W/m 0,0 km/h (0 Bft) 100,00 %
08.11.2019 07:40 3,2 C 1,7 C 1,1 C 97 % 1005,9 hPa 0,0 l/m 0 min 0 min 0 W/m 0,0 km/h (0 Bft) 100,00 %
08.11.2019 07:42 3,2 C 1,7 C 1,7 C 97 % 1005,9 hPa 0,0 l/m 0 min 0 min 1 W/m 0,0 km/h (0 Bft) 100,00 %
08.11.2019 07:44 3,2 C 2,2 C 1,7 C 97 % 1005,9 hPa 0,0 l/m 0 min 0 min 5 W/m 0,0 km/h (0 Bft) 100,00 %
08.11.2019 07:46 3,2 C 2,2 C 1,7 C 97 % 1005,9 hPa 0,0 l/m 0 min 0 min 5 W/m 0,0 km/h (0 Bft) 100,00 %
08.11.2019 07:48 3,1 C 2,2 C 1,7 C 97 % 1005,9 hPa 0,0 l/m 0 min 0 min 7 W/m 0,0 km/h (0 Bft) 100,00 %
08.11.2019 07:50 3,1 C 2,2 C 1,7 C 97 % 1005,8 hPa 0,0 l/m 0 min 0 min 8 W/m 0,0 km/h (0 Bft) 100,00 %
08.11.2019 07:52 3,1 C 2,2 C 1,7 C 97 % 1005,9 hPa 0,0 l/m 0 min 0 min 9 W/m 0,0 km/h (0 Bft) 97,87 %
08.11.2019 07:54 3,1 C 2,2 C 1,7 C 97 % 1005,9 hPa 0,0 l/m 0 min 0 min 10 W/m 0,0 km/h (0 Bft) 100,00 %
08.11.2019 07:56 3,1 C 2,2 C 1,7 C 97 % 1006,0 hPa 0,0 l/m 0 min 0 min 11 W/m 0,0 km/h (0 Bft) 100,00 %
08.11.2019 07:58 3,1 C 2,2 C 2,2 C 97 % 1006,0 hPa 0,0 l/m 0 min 0 min 12 W/m 0,0 km/h (0 Bft) 100,00 %
08.11.2019 08:00 3,1 C 2,8 C 2,2 C 97 % 1006,0 hPa 0,0 l/m 0 min 0 min 12 W/m 0,0 km/h (0 Bft) 100,00 %
08.11.2019 08:02 3,1 C 2,8 C 2,2 C 97 % 1006,0 hPa 0,0 l/m 0 min 0 min 13 W/m 0,0 km/h (0 Bft) 97,83 %
08.11.2019 08:04 3,1 C 2,2 C 2,2 C 97 % 1006,0 hPa 0,0 l/m 0 min 0 min 14 W/m 0,0 km/h (0 Bft) 100,00 %
08.11.2019 08:06 3,1 C 2,2 C 2,2 C 97 % 1006,0 hPa 0,0 l/m 0 min 0 min 15 W/m 0,0 km/h (0 Bft) 98,31 %
08.11.2019 08:08 3,1 C 2,8 C 2,2 C 97 % 1006,1 hPa 0,0 l/m 0 min 0 min 17 W/m 0,0 km/h (0 Bft) 100,00 %
08.11.2019 08:10 3,1 C 2,8 C 2,2 C 97 % 1006,1 hPa 0,0 l/m 0 min 0 min 18 W/m 0,0 km/h (0 Bft) 100,00 %
08.11.2019 08:12 3,1 C 2,8 C 2,2 C 97 % 1006,2 hPa 0,0 l/m 0 min 0 min 20 W/m 6,4 km/h (2 Bft) 100,00 %
08.11.2019 08:14 3,1 C 2,8 C 2,2 C 97 % 1006,2 hPa 0,0 l/m 0 min 0 min 21 W/m 3,2 km/h (1 Bft) 100,00 %
08.11.2019 08:16 3,1 C 2,8 C 2,2 C 97 % 1006,2 hPa 0,0 l/m 0 min 0 min 21 W/m 3,2 km/h (1 Bft) 97,87 %
08.11.2019 08:18 3,1 C 2,8 C 2,2 C 97 % 1006,2 hPa 0,0 l/m 0 min 0 min 23 W/m 3,2 km/h (1 Bft) 100,00 %
08.11.2019 08:20 3,1 C 2,8 C 2,2 C 97 % 1006,3 hPa 0,0 l/m 0 min 0 min 25 W/m 3,2 km/h (1 Bft) 100,00 %
08.11.2019 08:22 3,1 C 2,8 C 2,2 C 98 % 1006,3 hPa 0,0 l/m 0 min 0 min 25 W/m 0,0 km/h (0 Bft) 100,00 %
08.11.2019 08:24 3,1 C 2,8 C 2,2 C 98 % 1006,4 hPa 0,0 l/m 0 min 0 min 26 W/m 0,0 km/h (0 Bft) 97,87 %
08.11.2019 08:26 3,1 C 2,8 C 2,2 C 98 % 1006,4 hPa 0,0 l/m 0 min 0 min 26 W/m 0,0 km/h (0 Bft) 97,83 %
08.11.2019 08:28 3,1 C 3,3 C 2,2 C 97 % 1006,4 hPa 0,0 l/m 0 min 0 min 26 W/m 0,0 km/h (0 Bft) 97,87 %
08.11.2019 08:30 3,2 C 3,3 C 2,8 C 97 % 1006,4 hPa 0,0 l/m 0 min 0 min 26 W/m 0,0 km/h (0 Bft) 97,87 %
08.11.2019 08:32 3,2 C 3,3 C 2,8 C 97 % 1006,4 hPa 0,0 l/m 0 min 0 min 28 W/m 12,9 km/h (3 Bft) 97,87 %
08.11.2019 08:34 3,2 C 3,3 C 2,8 C 98 % 1006,5 hPa 0,0 l/m 0 min 0 min 28 W/m 6,4 km/h (2 Bft) 97,87 %
08.11.2019 08:36 3,2 C 3,3 C 2,8 C 98 % 1006,4 hPa 0,0 l/m 0 min 0 min 28 W/m 12,9 km/h (3 Bft) 95,65 %
08.11.2019 08:38 3,3 C 3,3 C 2,8 C 98 % 1006,5 hPa 0,0 l/m 0 min 0 min 28 W/m 12,9 km/h (3 Bft) 97,87 %
08.11.2019 08:40 3,3 C 3,3 C 2,8 C 98 % 1006,4 hPa 0,0 l/m 0 min 0 min 30 W/m 6,4 km/h (2 Bft) 95,74 %
08.11.2019 08:42 3,3 C 3,3 C 2,8 C 98 % 1006,4 hPa 0,0 l/m 0 min 0 min 31 W/m 6,4 km/h (2 Bft) 97,87 %
08.11.2019 08:44 3,3 C 3,3 C 2,8 C 98 % 1006,5 hPa 0,0 l/m 0 min 0 min 32 W/m 0,0 km/h (0 Bft) 97,87 %
08.11.2019 08:46 3,3 C 3,3 C 2,8 C 98 % 1006,5 hPa 0,0 l/m 0 min 0 min 33 W/m 0,0 km/h (0 Bft) 97,87 %
08.11.2019 08:48 3,4 C 3,3 C 2,8 C 98 % 1006,5 hPa 0,0 l/m 0 min 0 min 35 W/m 0,0 km/h (0 Bft) 97,83 %
08.11.2019 08:50 3,4 C 3,3 C 2,8 C 98 % 1006,5 hPa 0,0 l/m 0 min 0 min 35 W/m 0,0 km/h (0 Bft) 97,87 %
08.11.2019 08:52 3,4 C 3,3 C 2,8 C 98 % 1006,5 hPa 0,0 l/m 0 min 0 min 35 W/m 0,0 km/h (0 Bft) 97,87 %
08.11.2019 08:54 3,4 C 3,3 C 2,8 C 98 % 1006,5 hPa 0,0 l/m 0 min 0 min 35 W/m 0,0 km/h (0 Bft) 97,87 %
08.11.2019 08:56 3,4 C 3,3 C 2,8 C 98 % 1006,6 hPa 0,0 l/m 0 min 0 min 35 W/m 6,4 km/h (2 Bft) 95,74 %
08.11.2019 08:58 3,5 C 3,3 C 2,8 C 98 % 1006,6 hPa 0,0 l/m 0 min 0 min 37 W/m 3,2 km/h (1 Bft) 95,74 %
08.11.2019 09:00 3,5 C 3,3 C 2,8 C 98 % 1006,5 hPa 0,0 l/m 0 min 0 min 37 W/m 12,9 km/h (3 Bft) 97,83 %
08.11.2019 09:02 3,6 C 3,9 C 2,8 C 98 % 1006,5 hPa 0,0 l/m 0 min 0 min 37 W/m 12,9 km/h (3 Bft) 95,74 %
08.11.2019 09:04 3,6 C 3,9 C 2,8 C 98 % 1006,5 hPa 0,0 l/m 0 min 0 min 39 W/m 3,2 km/h (1 Bft) 97,87 %
08.11.2019 09:06 3,6 C 3,9 C 2,8 C 98 % 1006,6 hPa 0,0 l/m 0 min 0 min 40 W/m 3,2 km/h (1 Bft) 98,31 %
08.11.2019 09:08 3,6 C 3,9 C 2,8 C 98 % 1006,6 hPa 0,0 l/m 0 min 0 min 41 W/m 0,0 km/h (0 Bft) 100,00 %
08.11.2019 09:10 3,6 C 3,9 C 2,8 C 98 % 1006,5 hPa 0,0 l/m 0 min 0 min 44 W/m 3,2 km/h (1 Bft) 100,00 %
08.11.2019 09:12 3,6 C 3,9 C 2,8 C 98 % 1006,5 hPa 0,0 l/m 0 min 0 min 48 W/m 6,4 km/h (2 Bft) 100,00 %
08.11.2019 09:14 3,6 C 3,9 C 3,3 C 98 % 1006,5 hPa 0,0 l/m 0 min 0 min 50 W/m 6,4 km/h (2 Bft) 97,87 %
08.11.2019 09:16 3,7 C 3,9 C 3,3 C 98 % 1006,5 hPa 0,0 l/m 0 min 0 min 56 W/m 3,2 km/h (1 Bft) 97,87 %
08.11.2019 09:18 3,7 C 3,9 C 3,3 C 98 % 1006,6 hPa 0,0 l/m 0 min 0 min 65 W/m 3,2 km/h (1 Bft) 95,74 %
08.11.2019 09:20 3,7 C 3,9 C 3,3 C 98 % 1006,6 hPa 0,0 l/m 0 min 0 min 65 W/m 3,2 km/h (1 Bft) 95,74 %
08.11.2019 09:22 3,7 C 4,4 C 3,3 C 98 % 1006,6 hPa 0,0 l/m 0 min 0 min 56 W/m 12,9 km/h (3 Bft) 97,83 %
08.11.2019 09:24 3,7 C 4,4 C 3,3 C 98 % 1006,6 hPa 0,0 l/m 0 min 0 min 59 W/m 6,4 km/h (2 Bft) 97,87 %
08.11.2019 09:26 3,8 C 4,4 C 3,3 C 98 % 1006,5 hPa 0,0 l/m 0 min 0 min 60 W/m 3,2 km/h (1 Bft) 97,87 %
08.11.2019 09:28 3,8 C 4,4 C 3,3 C 98 % 1006,5 hPa 0,0 l/m 0 min 0 min 53 W/m 6,4 km/h (2 Bft) 100,00 %
08.11.2019 09:30 3,8 C 4,4 C 3,3 C 98 % 1006,5 hPa 0,0 l/m 0 min 0 min 46 W/m 6,4 km/h (2 Bft) 100,00 %
08.11.2019 09:32 3,9 C 4,4 C 3,9 C 98 % 1006,4 hPa 0,0 l/m 0 min 0 min 48 W/m 3,2 km/h (1 Bft) 95,74 %
08.11.2019 09:34 3,9 C 4,4 C 3,9 C 98 % 1006,4 hPa 0,0 l/m 0 min 0 min 52 W/m 0,0 km/h (0 Bft) 95,74 %
08.11.2019 09:36 3,9 C 4,4 C 3,9 C 98 % 1006,4 hPa 0,0 l/m 0 min 0 min 54 W/m 3,2 km/h (1 Bft) 95,65 %
08.11.2019 09:38 4,0 C 4,4 C 3,9 C 98 % 1006,4 hPa 0,0 l/m 0 min 0 min 56 W/m 3,2 km/h (1 Bft) 95,74 %
08.11.2019 09:40 4,0 C 4,4 C 3,9 C 98 % 1006,4 hPa 0,0 l/m 0 min 0 min 55 W/m 3,2 km/h (1 Bft) 95,74 %
08.11.2019 09:42 4,1 C 4,4 C 3,9 C 98 % 1006,4 hPa 0,0 l/m 0 min 0 min 59 W/m 12,9 km/h (3 Bft) 95,74 %
08.11.2019 09:44 4,1 C 4,4 C 3,9 C 98 % 1006,4 hPa 0,0 l/m 0 min 0 min 71 W/m 6,4 km/h (2 Bft) 95,74 %
08.11.2019 09:46 4,1 C 5,0 C 3,9 C 98 % 1006,4 hPa 0,0 l/m 0 min 0 min 77 W/m 0,0 km/h (0 Bft) 93,48 %
08.11.2019 09:48 4,2 C 5,0 C 3,9 C 98 % 1006,4 hPa 0,0 l/m 0 min 0 min 79 W/m 3,2 km/h (1 Bft) 95,74 %
08.11.2019 09:50 4,2 C 5,0 C 3,9 C 98 % 1006,5 hPa 0,0 l/m 0 min 0 min 83 W/m 3,2 km/h (1 Bft) 93,62 %
08.11.2019 09:52 4,2 C 5,0 C 3,9 C 98 % 1006,5 hPa 0,0 l/m 0 min 0 min 90 W/m 6,4 km/h (2 Bft) 93,62 %
08.11.2019 09:54 4,3 C 5,0 C 3,9 C 98 % 1006,5 hPa 0,0 l/m 0 min 0 min 96 W/m 3,2 km/h (1 Bft) 95,74 %
08.11.2019 09:56 4,3 C 5,6 C 3,9 C 98 % 1006,5 hPa 0,0 l/m 0 min 0 min 99 W/m 6,4 km/h (2 Bft) 95,74 %
08.11.2019 09:58 4,3 C 5,6 C 4,4 C 98 % 1006,6 hPa 0,0 l/m 0 min 0 min 128 W/m 12,9 km/h (3 Bft) 95,65 %
08.11.2019 10:00 4,4 C 5,6 C 4,4 C 98 % 1006,6 hPa 0,0 l/m 2 min 0 min 195 W/m 12,9 km/h (3 Bft) 93,62 %
08.11.2019 10:02 4,4 C 6,1 C 4,4 C 98 % 1006,7 hPa 0,0 l/m 2 min 0 min 141 W/m 6,4 km/h (2 Bft) 95,74 %
08.11.2019 10:04 4,5 C 6,1 C 4,4 C 98 % 1006,7 hPa 0,0 l/m 2 min 0 min 143 W/m 6,4 km/h (2 Bft) 95,74 %
08.11.2019 10:06 4,6 C 6,1 C 5,0 C 98 % 1006,7 hPa 0,0 l/m 2 min 0 min 149 W/m 12,9 km/h (3 Bft) 93,62 %
08.11.2019 10:08 4,6 C 6,1 C 5,0 C 98 % 1006,7 hPa 0,0 l/m 0 min 0 min 106 W/m 6,4 km/h (2 Bft) 93,62 %
08.11.2019 10:10 4,7 C 6,1 C 5,0 C 98 % 1006,6 hPa 0,0 l/m 0 min 0 min 108 W/m 12,9 km/h (3 Bft) 97,83 %
08.11.2019 10:12 4,7 C 6,1 C 5,0 C 99 % 1006,7 hPa 0,0 l/m 0 min 0 min 112 W/m 19,3 km/h (3 Bft) 97,87 %
08.11.2019 10:14 4,8 C 6,1 C 5,0 C 99 % 1006,7 hPa 0,0 l/m 0 min 0 min 116 W/m 12,9 km/h (3 Bft) 97,87 %
08.11.2019 10:16 4,8 C 6,1 C 5,0 C 99 % 1006,7 hPa 0,0 l/m 0 min 0 min 122 W/m 16,1 km/h (3 Bft) 93,62 %
08.11.2019 10:18 4,9 C 6,1 C 5,0 C 99 % 1006,7 hPa 0,0 l/m 0 min 0 min 121 W/m 16,1 km/h (3 Bft) 95,74 %
08.11.2019 10:20 4,9 C 6,1 C 5,0 C 99 % 1006,7 hPa 0,0 l/m 0 min 0 min 120 W/m 12,9 km/h (3 Bft) 95,74 %
08.11.2019 10:22 4,9 C 6,1 C 5,0 C 98 % 1006,6 hPa 0,0 l/m 0 min 0 min 118 W/m 3,2 km/h (1 Bft) 95,65 %
08.11.2019 10:24 4,9 C 6,1 C 5,0 C 98 % 1006,6 hPa 0,0 l/m 2 min 0 min 168 W/m 12,9 km/h (3 Bft) 97,87 %
08.11.2019 10:26 5,0 C 6,7 C 5,0 C 98 % 1006,6 hPa 0,0 l/m 0 min 0 min 153 W/m 6,4 km/h (2 Bft) 97,87 %
08.11.2019 10:28 5,1 C 6,7 C 5,0 C 98 % 1006,6 hPa 0,0 l/m 0 min 0 min 120 W/m 6,4 km/h (2 Bft) 100,00 %
08.11.2019 10:30 5,1 C 6,7 C 5,0 C 98 % 1006,6 hPa 0,0 l/m 0 min 0 min 129 W/m 16,1 km/h (3 Bft) 100,00 %
08.11.2019 10:32 5,1 C 6,7 C 5,0 C 99 % 1006,6 hPa 0,0 l/m 2 min 0 min 162 W/m 16,1 km/h (3 Bft) 100,00 %
08.11.2019 10:34 5,2 C 6,7 C 5,0 C 99 % 1006,7 hPa 0,0 l/m 0 min 0 min 139 W/m 16,1 km/h (3 Bft) 100,00 %
08.11.2019 10:36 5,2 C 6,7 C 5,0 C 99 % 1006,8 hPa 0,0 l/m 0 min 0 min 128 W/m 16,1 km/h (3 Bft) 100,00 %
08.11.2019 10:38 5,2 C 6,7 C 5,0 C 99 % 1006,8 hPa 0,0 l/m 0 min 0 min 113 W/m 12,9 km/h (3 Bft) 97,87 %
08.11.2019 10:40 5,3 C 6,7 C 5,0 C 99 % 1006,7 hPa 0,0 l/m 0 min 0 min 116 W/m 12,9 km/h (3 Bft) 100,00 %
08.11.2019 10:42 5,3 C 6,7 C 5,0 C 98 % 1006,7 hPa 0,0 l/m 0 min 0 min 114 W/m 12,9 km/h (3 Bft) 100,00 %
08.11.2019 10:44 5,3 C 6,7 C 5,0 C 98 % 1006,7 hPa 0,0 l/m 0 min 0 min 116 W/m 19,3 km/h (3 Bft) 97,83 %
08.11.2019 10:46 5,3 C 6,7 C 5,0 C 98 % 1006,7 hPa 0,0 l/m 0 min 0 min 129 W/m 16,1 km/h (3 Bft) 97,87 %
08.11.2019 10:48 5,4 C 6,7 C 5,6 C 98 % 1006,7 hPa 0,0 l/m 0 min 0 min 132 W/m 12,9 km/h (3 Bft) 97,87 %
08.11.2019 10:50 5,4 C 6,7 C 5,0 C 99 % 1006,9 hPa 0,0 l/m 0 min 0 min 119 W/m 19,3 km/h (3 Bft) 97,87 %
08.11.2019 10:52 5,4 C 6,7 C 5,0 C 99 % 1006,8 hPa 0,0 l/m 0 min 0 min 118 W/m 12,9 km/h (3 Bft) 97,87 %
08.11.2019 10:54 5,5 C 6,7 C 5,6 C 99 % 1006,8 hPa 0,0 l/m 0 min 0 min 129 W/m 12,9 km/h (3 Bft) 97,87 %
08.11.2019 10:56 5,6 C 6,7 C 5,6 C 98 % 1006,8 hPa 0,0 l/m 0 min 0 min 119 W/m 6,4 km/h (2 Bft) 97,83 %
08.11.2019 10:58 5,6 C 6,7 C 5,6 C 98 % 1006,9 hPa 0,0 l/m 0 min 0 min 112 W/m 12,9 km/h (3 Bft) 97,87 %
08.11.2019 11:00 5,6 C 6,7 C 5,6 C 98 % 1006,9 hPa 0,0 l/m 0 min 0 min 129 W/m 12,9 km/h (3 Bft) 95,74 %
08.11.2019 11:02 5,6 C 7,2 C 5,6 C 98 % 1007,0 hPa 0,0 l/m 0 min 0 min 164 W/m 9,7 km/h (2 Bft) 97,87 %
08.11.2019 11:04 5,6 C 7,8 C 5,6 C 98 % 1007,0 hPa 0,0 l/m 2 min 0 min 185 W/m 12,9 km/h (3 Bft) 97,87 %
08.11.2019 11:06 5,7 C 8,3 C 5,6 C 98 % 1007,0 hPa 0,0 l/m 2 min 0 min 212 W/m 12,9 km/h (3 Bft) 97,87 %
08.11.2019 11:08 5,7 C 8,3 C 5,6 C 98 % 1007,0 hPa 0,0 l/m 2 min 0 min 247 W/m 6,4 km/h (2 Bft) 97,83 %
08.11.2019 11:10 5,8 C 8,3 C 5,6 C 98 % 1007,0 hPa 0,0 l/m 0 min 0 min 166 W/m 12,9 km/h (3 Bft) 97,87 %
08.11.2019 11:12 5,8 C 8,3 C 5,6 C 98 % 1007,0 hPa 0,0 l/m 0 min 0 min 176 W/m 6,4 km/h (2 Bft) 95,74 %
08.11.2019 11:14 5,9 C 8,3 C 5,6 C 98 % 1007,0 hPa 0,0 l/m 0 min 0 min 167 W/m 12,9 km/h (3 Bft) 97,87 %
08.11.2019 11:16 5,9 C 8,9 C 5,6 C 98 % 1007,0 hPa 0,0 l/m 2 min 0 min 191 W/m 6,4 km/h (2 Bft) 95,74 %
08.11.2019 11:18 6,0 C 9,4 C 5,6 C 98 % 1006,9 hPa 0,0 l/m 2 min 0 min 209 W/m 6,4 km/h (2 Bft) 97,87 %
08.11.2019 11:20 6,1 C 9,4 C 5,6 C 98 % 1006,9 hPa 0,0 l/m 2 min 0 min 234 W/m 12,9 km/h (3 Bft) 100,00 %
08.11.2019 11:22 6,1 C 10,0 C 5,6 C 98 % 1006,9 hPa 0,0 l/m 2 min 0 min 278 W/m 12,9 km/h (3 Bft) 100,00 %
08.11.2019 11:24 6,2 C 11,1 C 6,1 C 98 % 1006,9 hPa 0,0 l/m 2 min 0 min 341 W/m 6,4 km/h (2 Bft) 100,00 %
08.11.2019 11:26 6,2 C 11,1 C 6,1 C 98 % 1006,9 hPa 0,0 l/m 2 min 0 min 348 W/m 6,4 km/h (2 Bft) 97,87 %
08.11.2019 11:28 6,3 C 11,1 C 6,1 C 98 % 1006,8 hPa 0,0 l/m 2 min 0 min 327 W/m 16,1 km/h (3 Bft) 100,00 %
08.11.2019 11:30 6,4 C 12,2 C 6,1 C 98 % 1006,8 hPa 0,0 l/m 2 min 0 min 384 W/m 9,7 km/h (2 Bft) 100,00 %
08.11.2019 11:32 6,5 C 12,2 C 6,1 C 98 % 1006,8 hPa 0,0 l/m 2 min 0 min 442 W/m 19,3 km/h (3 Bft) 100,00 %
08.11.2019 11:34 6,6 C 13,3 C 6,1 C 98 % 1006,7 hPa 0,0 l/m 2 min 0 min 438 W/m 6,4 km/h (2 Bft) 100,00 %
08.11.2019 11:36 6,7 C 12,8 C 6,7 C 98 % 1006,8 hPa 0,0 l/m 2 min 0 min 378 W/m 12,9 km/h (3 Bft) 100,00 %
08.11.2019 11:38 6,8 C 12,2 C 6,7 C 98 % 1006,8 hPa 0,0 l/m 2 min 0 min 355 W/m 16,1 km/h (3 Bft) 100,00 %
08.11.2019 11:40 6,9 C 11,7 C 6,7 C 98 % 1006,9 hPa 0,0 l/m 2 min 0 min 306 W/m 12,9 km/h (3 Bft) 100,00 %
08.11.2019 11:42 7,0 C 11,7 C 6,1 C 98 % 1006,8 hPa 0,0 l/m 2 min 0 min 332 W/m 16,1 km/h (3 Bft) 100,00 %
08.11.2019 11:44 7,1 C 11,1 C 6,1 C 98 % 1006,8 hPa 0,0 l/m 2 min 0 min 261 W/m 12,9 km/h (3 Bft) 100,00 %
08.11.2019 11:46 7,1 C 11,1 C 6,1 C 97 % 1006,8 hPa 0,0 l/m 2 min 0 min 295 W/m 12,9 km/h (3 Bft) 97,87 %
08.11.2019 11:48 7,2 C 10,6 C 6,1 C 97 % 1006,7 hPa 0,0 l/m 2 min 0 min 317 W/m 12,9 km/h (3 Bft) 97,87 %
08.11.2019 11:50 7,2 C 10,0 C 6,7 C 97 % 1006,7 hPa 0,0 l/m 2 min 0 min 234 W/m 16,1 km/h (3 Bft) 95,74 %
08.11.2019 11:52 7,3 C 9,4 C 6,1 C 97 % 1006,7 hPa 0,0 l/m 0 min 0 min 158 W/m 6,4 km/h (2 Bft) 97,87 %
08.11.2019 11:54 7,3 C 8,9 C 6,1 C 96 % 1006,7 hPa 0,0 l/m 0 min 0 min 155 W/m 16,1 km/h (3 Bft) 95,65 %
08.11.2019 11:56 7,3 C 8,9 C 6,1 C 96 % 1006,7 hPa 0,0 l/m 0 min 0 min 186 W/m 12,9 km/h (3 Bft) 97,87 %
08.11.2019 11:58 7,3 C 8,9 C 6,1 C 96 % 1006,7 hPa 0,0 l/m 0 min 0 min 171 W/m 6,4 km/h (2 Bft) 97,87 %
08.11.2019 12:00 7,3 C 8,9 C 6,1 C 95 % 1006,7 hPa 0,0 l/m 0 min 0 min 175 W/m 16,1 km/h (3 Bft) 97,87 %
08.11.2019 12:02 7,3 C 9,4 C 6,1 C 95 % 1006,6 hPa 0,0 l/m 2 min 0 min 193 W/m 6,4 km/h (2 Bft) 97,87 %
08.11.2019 12:04 7,4 C 11,1 C 6,7 C 95 % 1006,6 hPa 0,0 l/m 2 min 0 min 290 W/m 6,4 km/h (2 Bft) 97,87 %
08.11.2019 12:08 7,4 C 11,1 C 6,7 C 94 % 1006,6 hPa 0,0 l/m 4 min 0 min 301 W/m 6,4 km/h (2 Bft) 97,85 %
08.11.2019 12:10 7,5 C 11,1 C 6,7 C 94 % 1006,6 hPa 0,0 l/m 2 min 0 min 272 W/m 12,9 km/h (3 Bft) 97,87 %
08.11.2019 12:12 7,6 C 11,7 C 6,7 C 94 % 1006,6 hPa 0,0 l/m 2 min 0 min 306 W/m 12,9 km/h (3 Bft) 97,87 %
08.11.2019 12:14 7,6 C 12,8 C 7,2 C 94 % 1006,6 hPa 0,0 l/m 2 min 0 min 327 W/m 6,4 km/h (2 Bft) 95,74 %
08.11.2019 12:16 7,7 C 13,3 C 7,2 C 94 % 1006,6 hPa 0,0 l/m 2 min 0 min 368 W/m 12,9 km/h (3 Bft) 100,00 %
08.11.2019 12:18 7,8 C 13,3 C 7,8 C 93 % 1006,5 hPa 0,0 l/m 2 min 0 min 378 W/m 3,2 km/h (1 Bft) 100,00 %
08.11.2019 12:20 7,8 C 13,9 C 8,3 C 93 % 1006,5 hPa 0,0 l/m 2 min 0 min 404 W/m 6,4 km/h (2 Bft) 97,87 %
08.11.2019 12:22 7,9 C 13,3 C 7,8 C 93 % 1006,5 hPa 0,0 l/m 2 min 0 min 389 W/m 12,9 km/h (3 Bft) 95,74 %
08.11.2019 12:24 8,0 C 13,3 C 8,3 C 93 % 1006,5 hPa 0,0 l/m 2 min 0 min 340 W/m 16,1 km/h (3 Bft) 97,87 %
08.11.2019 12:26 8,1 C 12,8 C 7,8 C 93 % 1006,5 hPa 0,0 l/m 2 min 0 min 388 W/m 16,1 km/h (3 Bft) 100,00 %
08.11.2019 12:28 8,1 C 13,9 C 8,9 C 92 % 1006,5 hPa 0,0 l/m 2 min 0 min 396 W/m 6,4 km/h (2 Bft) 97,83 %
08.11.2019 12:30 8,2 C 13,9 C 9,4 C 92 % 1006,5 hPa 0,0 l/m 2 min 0 min 379 W/m 6,4 km/h (2 Bft) 100,00 %
08.11.2019 12:32 8,3 C 14,4 C 8,3 C 92 % 1006,4 hPa 0,0 l/m 2 min 0 min 388 W/m 9,7 km/h (2 Bft) 97,87 %
08.11.2019 12:34 8,3 C 13,9 C 8,3 C 91 % 1006,4 hPa 0,0 l/m 2 min 0 min 421 W/m 12,9 km/h (3 Bft) 100,00 %
08.11.2019 12:36 8,4 C 15,0 C 8,3 C 91 % 1006,4 hPa 0,0 l/m 2 min 0 min 418 W/m 6,4 km/h (2 Bft) 97,87 %
08.11.2019 12:38 8,6 C 14,4 C 8,3 C 90 % 1006,4 hPa 0,0 l/m 2 min 0 min 416 W/m 9,7 km/h (2 Bft) 97,87 %
08.11.2019 12:40 8,6 C 15,0 C 7,8 C 90 % 1006,4 hPa 0,0 l/m 2 min 0 min 412 W/m 6,4 km/h (2 Bft) 97,87 %
08.11.2019 12:42 8,7 C 15,0 C 7,8 C 90 % 1006,3 hPa 0,0 l/m 2 min 0 min 398 W/m 6,4 km/h (2 Bft) 97,83 %
08.11.2019 12:44 8,8 C 14,4 C 7,8 C 89 % 1006,3 hPa 0,0 l/m 2 min 0 min 403 W/m 12,9 km/h (3 Bft) 93,62 %
08.11.2019 12:46 8,8 C 14,4 C 7,2 C 89 % 1006,3 hPa 0,0 l/m 2 min 0 min 403 W/m 16,1 km/h (3 Bft) 97,87 %
08.11.2019 12:48 8,9 C 14,4 C 7,2 C 89 % 1006,3 hPa 0,0 l/m 2 min 0 min 398 W/m 12,9 km/h (3 Bft) 97,87 %
08.11.2019 12:50 9,0 C 14,4 C 7,2 C 88 % 1006,2 hPa 0,0 l/m 2 min 0 min 410 W/m 12,9 km/h (3 Bft) 97,87 %
08.11.2019 12:52 9,1 C 13,9 C 7,8 C 88 % 1006,2 hPa 0,0 l/m 2 min 0 min 405 W/m 6,4 km/h (2 Bft) 97,83 %
08.11.2019 12:54 9,2 C 14,4 C 7,8 C 88 % 1006,2 hPa 0,0 l/m 2 min 0 min 405 W/m 6,4 km/h (2 Bft) 97,87 %
08.11.2019 12:56 9,2 C 14,4 C 7,8 C 87 % 1006,1 hPa 0,0 l/m 2 min 0 min 405 W/m 12,9 km/h (3 Bft) 97,87 %
08.11.2019 12:58 9,2 C 15,0 C 7,8 C 87 % 1006,2 hPa 0,0 l/m 2 min 0 min 404 W/m 6,4 km/h (2 Bft) 97,87 %
08.11.2019 13:00 9,3 C 15,6 C 7,8 C 86 % 1006,1 hPa 0,0 l/m 2 min 0 min 401 W/m 12,9 km/h (3 Bft) 95,74 %
08.11.2019 13:02 9,3 C 15,0 C 7,8 C 86 % 1006,1 hPa 0,0 l/m 2 min 0 min 399 W/m 6,4 km/h (2 Bft) 97,87 %
08.11.2019 13:04 9,4 C 14,4 C 7,8 C 86 % 1006,2 hPa 0,0 l/m 2 min 0 min 398 W/m 16,1 km/h (3 Bft) 97,83 %
08.11.2019 13:06 9,4 C 13,9 C 7,8 C 85 % 1006,2 hPa 0,0 l/m 2 min 0 min 399 W/m 12,9 km/h (3 Bft) 97,87 %
08.11.2019 13:08 9,4 C 14,4 C 7,8 C 85 % 1006,2 hPa 0,0 l/m 2 min 0 min 396 W/m 12,9 km/h (3 Bft) 100,00 %
08.11.2019 13:10 9,4 C 14,4 C 7,8 C 85 % 1006,2 hPa 0,0 l/m 2 min 0 min 394 W/m 12,9 km/h (3 Bft) 100,00 %
08.11.2019 13:12 9,5 C 15,0 C 7,8 C 84 % 1006,2 hPa 0,0 l/m 2 min 0 min 390 W/m 6,4 km/h (2 Bft) 97,87 %
08.11.2019 13:14 9,6 C 15,0 C 7,8 C 84 % 1006,2 hPa 0,0 l/m 2 min 0 min 390 W/m 6,4 km/h (2 Bft) 100,00 %
08.11.2019 13:16 9,6 C 14,4 C 7,8 C 84 % 1006,2 hPa 0,0 l/m 2 min 0 min 390 W/m 12,9 km/h (3 Bft) 97,83 %
08.11.2019 13:18 9,6 C 15,0 C 7,8 C 84 % 1006,2 hPa 0,0 l/m 2 min 0 min 388 W/m 6,4 km/h (2 Bft) 100,00 %
08.11.2019 13:20 9,7 C 15,0 C 8,3 C 84 % 1006,2 hPa 0,0 l/m 2 min 0 min 386 W/m 6,4 km/h (2 Bft) 100,00 %
08.11.2019 13:22 9,7 C 14,4 C 8,3 C 84 % 1006,2 hPa 0,0 l/m 2 min 0 min 383 W/m 9,7 km/h (2 Bft) 100,00 %
08.11.2019 13:24 9,8 C 15,0 C 8,3 C 84 % 1006,3 hPa 0,0 l/m 2 min 0 min 382 W/m 6,4 km/h (2 Bft) 100,00 %
08.11.2019 13:26 9,8 C 14,4 C 7,8 C 84 % 1006,3 hPa 0,0 l/m 2 min 0 min 381 W/m 6,4 km/h (2 Bft) 100,00 %
08.11.2019 13:28 9,8 C 15,0 C 8,3 C 83 % 1006,3 hPa 0,0 l/m 2 min 0 min 380 W/m 12,9 km/h (3 Bft) 97,87 %
08.11.2019 13:30 9,9 C 15,0 C 8,3 C 83 % 1006,3 hPa 0,0 l/m 2 min 0 min 379 W/m 9,7 km/h (2 Bft) 100,00 %
08.11.2019 13:32 9,9 C 14,4 C 8,3 C 83 % 1006,3 hPa 0,0 l/m 2 min 0 min 376 W/m 12,9 km/h (3 Bft) 100,00 %
08.11.2019 13:34 9,9 C 13,9 C 7,8 C 82 % 1006,3 hPa 0,0 l/m 2 min 0 min 374 W/m 12,9 km/h (3 Bft) 100,00 %
08.11.2019 13:36 9,9 C 14,4 C 7,8 C 82 % 1006,3 hPa 0,0 l/m 2 min 0 min 371 W/m 12,9 km/h (3 Bft) 95,74 %
08.11.2019 13:38 9,9 C 14,4 C 8,3 C 82 % 1006,3 hPa 0,0 l/m 2 min 0 min 367 W/m 6,4 km/h (2 Bft) 97,83 %
08.11.2019 13:40 9,9 C 14,4 C 8,3 C 82 % 1006,2 hPa 0,0 l/m 2 min 0 min 367 W/m 12,9 km/h (3 Bft) 95,74 %
08.11.2019 13:42 10,0 C 13,9 C 8,3 C 82 % 1006,2 hPa 0,0 l/m 2 min 0 min 366 W/m 12,9 km/h (3 Bft) 95,74 %
08.11.2019 13:44 10,0 C 14,4 C 8,3 C 82 % 1006,2 hPa 0,0 l/m 2 min 0 min 363 W/m 12,9 km/h (3 Bft) 95,74 %
08.11.2019 13:46 10,1 C 14,4 C 8,3 C 82 % 1006,2 hPa 0,0 l/m 2 min 0 min 360 W/m 12,9 km/h (3 Bft) 97,87 %
08.11.2019 13:48 10,1 C 14,4 C 8,3 C 82 % 1006,2 hPa 0,0 l/m 2 min 0 min 359 W/m 12,9 km/h (3 Bft) 97,87 %
08.11.2019 13:50 10,1 C 15,0 C 8,3 C 82 % 1006,2 hPa 0,0 l/m 2 min 0 min 358 W/m 12,9 km/h (3 Bft) 97,83 %
08.11.2019 13:52 10,1 C 15,0 C 8,3 C 82 % 1006,2 hPa 0,0 l/m 2 min 0 min 355 W/m 12,9 km/h (3 Bft) 97,87 %
08.11.2019 13:54 10,1 C 15,0 C 8,3 C 82 % 1006,2 hPa 0,0 l/m 2 min 0 min 352 W/m 6,4 km/h (2 Bft) 95,74 %
08.11.2019 13:56 10,2 C 15,6 C 8,9 C 82 % 1006,2 hPa 0,0 l/m 2 min 0 min 349 W/m 6,4 km/h (2 Bft) 97,87 %
08.11.2019 13:58 10,2 C 13,9 C 8,3 C 82 % 1006,2 hPa 0,0 l/m 2 min 0 min 347 W/m 12,9 km/h (3 Bft) 97,87 %
08.11.2019 14:00 10,2 C 13,9 C 8,3 C 81 % 1006,2 hPa 0,0 l/m 2 min 0 min 345 W/m 12,9 km/h (3 Bft) 97,87 %
08.11.2019 14:02 10,2 C 13,9 C 8,3 C 81 % 1006,2 hPa 0,0 l/m 2 min 0 min 342 W/m 12,9 km/h (3 Bft) 97,83 %
08.11.2019 14:04 10,2 C 15,0 C 8,3 C 81 % 1006,2 hPa 0,0 l/m 2 min 0 min 339 W/m 6,4 km/h (2 Bft) 95,74 %
08.11.2019 14:06 10,3 C 15,0 C 8,3 C 81 % 1006,2 hPa 0,0 l/m 2 min 0 min 335 W/m 12,9 km/h (3 Bft) 96,61 %
08.11.2019 14:08 10,3 C 15,0 C 8,3 C 81 % 1006,2 hPa 0,0 l/m 2 min 0 min 334 W/m 6,4 km/h (2 Bft) 94,29 %
08.11.2019 14:10 10,3 C 14,4 C 8,3 C 81 % 1006,2 hPa 0,0 l/m 2 min 0 min 330 W/m 6,4 km/h (2 Bft) 97,87 %
08.11.2019 14:12 10,3 C 14,4 C 8,3 C 81 % 1006,2 hPa 0,0 l/m 2 min 0 min 330 W/m 6,4 km/h (2 Bft) 95,74 %
08.11.2019 14:14 10,3 C 15,6 C 8,3 C 81 % 1006,2 hPa 0,0 l/m 2 min 0 min 327 W/m 6,4 km/h (2 Bft) 97,83 %
08.11.2019 14:16 10,4 C 16,1 C 8,3 C 81 % 1006,2 hPa 0,0 l/m 2 min 0 min 324 W/m 6,4 km/h (2 Bft) 97,87 %
08.11.2019 14:18 10,4 C 15,6 C 8,3 C 81 % 1006,2 hPa 0,0 l/m 2 min 0 min 321 W/m 3,2 km/h (1 Bft) 97,87 %
08.11.2019 14:20 10,4 C 16,1 C 8,3 C 81 % 1006,2 hPa 0,0 l/m 2 min 0 min 316 W/m 6,4 km/h (2 Bft) 97,87 %
08.11.2019 14:22 10,5 C 16,1 C 8,3 C 81 % 1006,3 hPa 0,0 l/m 2 min 0 min 290 W/m 3,2 km/h (1 Bft) 93,62 %
08.11.2019 14:24 10,6 C 15,6 C 8,3 C 81 % 1006,3 hPa 0,0 l/m 2 min 0 min 269 W/m 6,4 km/h (2 Bft) 97,87 %
08.11.2019 14:26 10,6 C 15,6 C 8,3 C 81 % 1006,3 hPa 0,0 l/m 2 min 0 min 263 W/m 3,2 km/h (1 Bft) 97,83 %
08.11.2019 14:28 10,6 C 14,4 C 8,3 C 81 % 1006,3 hPa 0,0 l/m 2 min 0 min 257 W/m 3,2 km/h (1 Bft) 97,87 %
08.11.2019 14:30 10,7 C 14,4 C 7,8 C 80 % 1006,3 hPa 0,0 l/m 2 min 0 min 258 W/m 3,2 km/h (1 Bft) 97,87 %
08.11.2019 14:32 10,7 C 14,4 C 7,8 C 80 % 1006,3 hPa 0,0 l/m 2 min 0 min 277 W/m 3,2 km/h (1 Bft) 95,74 %
08.11.2019 14:34 10,7 C 15,0 C 7,8 C 80 % 1006,3 hPa 0,0 l/m 2 min 0 min 284 W/m 3,2 km/h (1 Bft) 97,87 %
08.11.2019 14:36 10,7 C 15,0 C 7,8 C 80 % 1006,4 hPa 0,0 l/m 2 min 0 min 285 W/m 12,9 km/h (3 Bft) 96,55 %
08.11.2019 14:38 10,7 C 14,4 C 7,8 C 80 % 1006,3 hPa 0,0 l/m 2 min 0 min 283 W/m 3,2 km/h (1 Bft) 97,14 %
08.11.2019 14:40 10,7 C 15,6 C 7,8 C 80 % 1006,3 hPa 0,0 l/m 2 min 0 min 284 W/m 0,0 km/h (0 Bft) 97,87 %
08.11.2019 14:42 10,8 C 15,6 C 7,8 C 80 % 1006,3 hPa 0,0 l/m 2 min 0 min 283 W/m 3,2 km/h (1 Bft) 97,87 %
08.11.2019 14:44 10,8 C 15,6 C 7,8 C 81 % 1006,3 hPa 0,0 l/m 2 min 0 min 283 W/m 3,2 km/h (1 Bft) 93,62 %
08.11.2019 14:46 10,8 C 15,6 C 7,8 C 80 % 1006,3 hPa 0,0 l/m 2 min 0 min 281 W/m 3,2 km/h (1 Bft) 95,74 %
08.11.2019 14:48 10,8 C 15,6 C 7,8 C 80 % 1006,3 hPa 0,0 l/m 2 min 0 min 279 W/m 6,4 km/h (2 Bft) 95,65 %
08.11.2019 14:50 10,9 C 15,6 C 7,8 C 80 % 1006,3 hPa 0,0 l/m 2 min 0 min 281 W/m 3,2 km/h (1 Bft) 95,74 %
08.11.2019 14:52 10,9 C 15,6 C 7,8 C 81 % 1006,3 hPa 0,0 l/m 2 min 0 min 281 W/m 6,4 km/h (2 Bft) 95,74 %
08.11.2019 14:54 10,9 C 15,6 C 7,8 C 80 % 1006,3 hPa 0,0 l/m 2 min 0 min 277 W/m 6,4 km/h (2 Bft) 97,87 %
08.11.2019 14:56 10,9 C 15,0 C 7,8 C 80 % 1006,3 hPa 0,0 l/m 2 min 0 min 271 W/m 6,4 km/h (2 Bft) 95,74 %
08.11.2019 14:58 10,9 C 13,9 C 7,8 C 80 % 1006,3 hPa 0,0 l/m 2 min 0 min 266 W/m 3,2 km/h (1 Bft) 95,74 %
08.11.2019 15:00 10,9 C 12,8 C 7,8 C 80 % 1006,3 hPa 0,0 l/m 2 min 0 min 262 W/m 3,2 km/h (1 Bft) 93,48 %
08.11.2019 15:02 10,9 C 12,2 C 7,8 C 80 % 1006,4 hPa 0,0 l/m 2 min 0 min 256 W/m 3,2 km/h (1 Bft) 93,62 %
08.11.2019 15:04 10,8 C 11,1 C 7,8 C 79 % 1006,3 hPa 0,0 l/m 2 min 0 min 231 W/m 0,0 km/h (0 Bft) 93,62 %
08.11.2019 15:06 10,8 C 10,6 C 7,8 C 79 % 1006,3 hPa 0,0 l/m 2 min 0 min 199 W/m 3,2 km/h (1 Bft) 95,74 %
08.11.2019 15:08 10,7 C 10,6 C 7,8 C 79 % 1006,3 hPa 0,0 l/m 2 min 0 min 173 W/m 0,0 km/h (0 Bft) 93,62 %
08.11.2019 15:10 10,7 C 10,0 C 7,8 C 79 % 1006,4 hPa 0,0 l/m 2 min 0 min 147 W/m 12,9 km/h (3 Bft) 95,74 %
08.11.2019 15:12 10,6 C 10,0 C 7,8 C 79 % 1006,3 hPa 0,0 l/m 2 min 0 min 124 W/m 6,4 km/h (2 Bft) 95,65 %
08.11.2019 15:14 10,6 C 9,4 C 7,8 C 79 % 1006,4 hPa 0,0 l/m 2 min 0 min 112 W/m 6,4 km/h (2 Bft) 95,74 %
08.11.2019 15:16 10,6 C 9,4 C 7,8 C 79 % 1006,3 hPa 0,0 l/m 2 min 0 min 105 W/m 3,2 km/h (1 Bft) 95,74 %
08.11.2019 15:18 10,5 C 9,4 C 7,8 C 80 % 1006,4 hPa 0,0 l/m 2 min 0 min 106 W/m 3,2 km/h (1 Bft) 95,74 %
08.11.2019 15:20 10,4 C 10,0 C 7,8 C 80 % 1006,4 hPa 0,0 l/m 2 min 0 min 105 W/m 3,2 km/h (1 Bft) 95,74 %
08.11.2019 15:22 10,4 C 9,4 C 7,8 C 80 % 1006,4 hPa 0,0 l/m 2 min 0 min 103 W/m 3,2 km/h (1 Bft) 100,00 %
08.11.2019 15:24 10,4 C 9,4 C 7,8 C 80 % 1006,5 hPa 0,0 l/m 2 min 0 min 99 W/m 6,4 km/h (2 Bft) 100,00 %
08.11.2019 15:26 10,3 C 9,4 C 7,8 C 80 % 1006,5 hPa 0,0 l/m 2 min 0 min 97 W/m 6,4 km/h (2 Bft) 100,00 %
08.11.2019 15:28 10,3 C 9,4 C 7,8 C 80 % 1006,5 hPa 0,0 l/m 2 min 0 min 95 W/m 6,4 km/h (2 Bft) 97,87 %
08.11.2019 15:30 10,2 C 9,4 C 7,8 C 80 % 1006,5 hPa 0,0 l/m 2 min 0 min 93 W/m 6,4 km/h (2 Bft) 95,24 %
08.11.2019 15:32 10,2 C 9,4 C 7,8 C 80 % 1006,5 hPa 0,0 l/m 2 min 0 min 93 W/m 6,4 km/h (2 Bft) 100,00 %
08.11.2019 15:34 10,2 C 9,4 C 7,8 C 80 % 1006,5 hPa 0,0 l/m 2 min 0 min 91 W/m 3,2 km/h (1 Bft) 100,00 %
08.11.2019 15:36 10,1 C 9,4 C 7,8 C 81 % 1006,6 hPa 0,0 l/m 2 min 0 min 88 W/m 3,2 km/h (1 Bft) 100,00 %
08.11.2019 15:38 10,1 C 9,4 C 7,8 C 81 % 1006,6 hPa 0,0 l/m 2 min 0 min 84 W/m 3,2 km/h (1 Bft) 100,00 %
08.11.2019 15:40 10,1 C 9,4 C 7,8 C 81 % 1006,6 hPa 0,0 l/m 0 min 0 min 79 W/m 6,4 km/h (2 Bft) 97,87 %
08.11.2019 15:42 10,1 C 9,4 C 7,8 C 81 % 1006,6 hPa 0,0 l/m 0 min 0 min 76 W/m 3,2 km/h (1 Bft) 97,87 %
08.11.2019 15:44 10,0 C 9,4 C 7,8 C 82 % 1006,6 hPa 0,0 l/m 0 min 0 min 70 W/m 6,4 km/h (2 Bft) 97,87 %
08.11.2019 15:46 9,9 C 8,9 C 7,8 C 82 % 1006,6 hPa 0,0 l/m 0 min 0 min 67 W/m 3,2 km/h (1 Bft) 97,83 %
08.11.2019 15:48 9,9 C 8,9 C 7,8 C 82 % 1006,7 hPa 0,0 l/m 0 min 0 min 63 W/m 6,4 km/h (2 Bft) 97,87 %
08.11.2019 15:50 9,9 C 8,9 C 7,8 C 82 % 1006,7 hPa 0,0 l/m 0 min 0 min 63 W/m 6,4 km/h (2 Bft) 97,87 %
08.11.2019 15:52 9,8 C 8,9 C 7,8 C 82 % 1006,7 hPa 0,0 l/m 0 min 0 min 62 W/m 3,2 km/h (1 Bft) 97,87 %
08.11.2019 15:54 9,8 C 8,9 C 7,8 C 82 % 1006,7 hPa 0,0 l/m 0 min 0 min 58 W/m 6,4 km/h (2 Bft) 95,74 %
08.11.2019 15:56 9,8 C 8,9 C 7,8 C 82 % 1006,7 hPa 0,0 l/m 0 min 0 min 54 W/m 12,9 km/h (3 Bft) 97,87 %
08.11.2019 15:58 9,7 C 8,9 C 7,8 C 82 % 1006,8 hPa 0,0 l/m 0 min 0 min 52 W/m 3,2 km/h (1 Bft) 95,65 %
08.11.2019 16:00 9,7 C 8,9 C 7,8 C 82 % 1006,8 hPa 0,0 l/m 0 min 0 min 47 W/m 6,4 km/h (2 Bft) 95,74 %
08.11.2019 16:02 9,6 C 8,9 C 7,8 C 81 % 1006,9 hPa 0,0 l/m 0 min 0 min 44 W/m 6,4 km/h (2 Bft) 97,87 %
08.11.2019 16:04 9,6 C 8,9 C 7,8 C 81 % 1006,9 hPa 0,0 l/m 0 min 0 min 43 W/m 3,2 km/h (1 Bft) 97,87 %
08.11.2019 16:06 9,6 C 8,3 C 7,2 C 81 % 1006,9 hPa 0,0 l/m 0 min 0 min 43 W/m 3,2 km/h (1 Bft) 97,87 %
08.11.2019 16:08 9,6 C 8,3 C 7,2 C 81 % 1006,9 hPa 0,0 l/m 0 min 0 min 40 W/m 0,0 km/h (0 Bft) 97,87 %
08.11.2019 16:10 9,6 C 8,3 C 7,2 C 81 % 1007,0 hPa 0,0 l/m 0 min 0 min 38 W/m 0,0 km/h (0 Bft) 93,48 %
08.11.2019 16:12 9,5 C 8,3 C 6,7 C 82 % 1007,0 hPa 0,0 l/m 0 min 0 min 36 W/m 0,0 km/h (0 Bft) 95,74 %
08.11.2019 16:14 9,5 C 7,8 C 6,7 C 82 % 1007,0 hPa 0,0 l/m 0 min 0 min 33 W/m 0,0 km/h (0 Bft) 97,87 %
08.11.2019 16:16 9,5 C 7,8 C 6,7 C 82 % 1007,0 hPa 0,0 l/m 0 min 0 min 33 W/m 0,0 km/h (0 Bft) 97,87 %
08.11.2019 16:18 9,4 C 7,8 C 6,1 C 82 % 1007,0 hPa 0,0 l/m 0 min 0 min 33 W/m 0,0 km/h (0 Bft) 95,74 %
08.11.2019 16:20 9,4 C 7,8 C 6,1 C 82 % 1007,0 hPa 0,0 l/m 0 min 0 min 32 W/m 0,0 km/h (0 Bft) 95,74 %
08.11.2019 16:22 9,4 C 7,8 C 6,1 C 82 % 1007,1 hPa 0,0 l/m 0 min 0 min 30 W/m 3,2 km/h (1 Bft) 97,83 %
08.11.2019 16:24 9,3 C 7,8 C 6,1 C 83 % 1007,1 hPa 0,0 l/m 0 min 0 min 28 W/m 3,2 km/h (1 Bft) 97,87 %
08.11.2019 16:26 9,3 C 7,2 C 6,1 C 83 % 1007,1 hPa 0,0 l/m 0 min 0 min 27 W/m 0,0 km/h (0 Bft) 97,87 %
08.11.2019 16:28 9,3 C 7,2 C 5,6 C 83 % 1007,1 hPa 0,0 l/m 0 min 0 min 26 W/m 0,0 km/h (0 Bft) 97,87 %
08.11.2019 16:30 9,2 C 7,2 C 5,6 C 83 % 1007,1 hPa 0,0 l/m 2 min 0 min 25 W/m 0,0 km/h (0 Bft) 97,87 %
08.11.2019 16:32 9,2 C 6,7 C 5,6 C 83 % 1007,1 hPa 0,0 l/m 0 min 0 min 22 W/m 0,0 km/h (0 Bft) 100,00 %
08.11.2019 16:34 9,1 C 6,7 C 5,6 C 84 % 1007,1 hPa 0,0 l/m 2 min 0 min 20 W/m 0,0 km/h (0 Bft) 97,83 %
08.11.2019 16:36 9,1 C 6,7 C 5,6 C 84 % 1007,1 hPa 0,0 l/m 0 min 0 min 17 W/m 0,0 km/h (0 Bft) 100,00 %
08.11.2019 16:38 8,9 C 6,7 C 5,0 C 84 % 1007,1 hPa 0,0 l/m 0 min 0 min 15 W/m 0,0 km/h (0 Bft) 95,74 %
08.11.2019 16:40 8,9 C 6,7 C 5,0 C 84 % 1007,1 hPa 0,0 l/m 0 min 0 min 13 W/m 0,0 km/h (0 Bft) 97,87 %
08.11.2019 16:42 8,8 C 6,1 C 5,0 C 85 % 1007,1 hPa 0,0 l/m 0 min 0 min 12 W/m 0,0 km/h (0 Bft) 97,87 %
08.11.2019 16:44 8,8 C 6,1 C 5,0 C 85 % 1007,1 hPa 0,0 l/m 0 min 0 min 10 W/m 0,0 km/h (0 Bft) 100,00 %
08.11.2019 16:46 8,7 C 6,1 C 5,0 C 85 % 1007,0 hPa 0,0 l/m 0 min 0 min 9 W/m 0,0 km/h (0 Bft) 95,65 %
08.11.2019 16:48 8,6 C 6,1 C 5,0 C 85 % 1007,1 hPa 0,0 l/m 0 min 0 min 8 W/m 0,0 km/h (0 Bft) 95,74 %
08.11.2019 16:50 8,6 C 6,1 C 5,0 C 85 % 1007,1 hPa 0,0 l/m 0 min 0 min 7 W/m 0,0 km/h (0 Bft) 97,87 %
08.11.2019 16:52 8,5 C 6,1 C 4,4 C 86 % 1007,1 hPa 0,0 l/m 0 min 0 min 7 W/m 0,0 km/h (0 Bft) 95,74 %
08.11.2019 16:54 8,4 C 6,1 C 4,4 C 86 % 1007,1 hPa 0,0 l/m 0 min 0 min 5 W/m 0,0 km/h (0 Bft) 97,87 %
08.11.2019 16:56 8,3 C 6,1 C 4,4 C 86 % 1007,1 hPa 0,0 l/m 0 min 0 min 5 W/m 0,0 km/h (0 Bft) 95,65 %
08.11.2019 16:58 8,3 C 5,6 C 4,4 C 86 % 1007,1 hPa 0,0 l/m 0 min 0 min 5 W/m 0,0 km/h (0 Bft) 97,87 %
08.11.2019 17:00 8,2 C 5,6 C 4,4 C 86 % 1007,1 hPa 0,0 l/m 0 min 0 min 5 W/m 0,0 km/h (0 Bft) 97,87 %
08.11.2019 17:02 8,2 C 5,6 C 4,4 C 86 % 1007,1 hPa 0,0 l/m 0 min 0 min 2 W/m 0,0 km/h (0 Bft) 97,87 %
08.11.2019 17:04 8,1 C 5,6 C 4,4 C 86 % 1007,1 hPa 0,0 l/m 0 min 0 min 0 W/m 0,0 km/h (0 Bft) 97,87 %
08.11.2019 17:06 8,0 C 5,6 C 4,4 C 86 % 1007,1 hPa 0,0 l/m 0 min 0 min 0 W/m 0,0 km/h (0 Bft) 97,87 %
08.11.2019 17:08 7,9 C 5,0 C 4,4 C 87 % 1007,1 hPa 0,0 l/m 0 min 0 min 0 W/m 0,0 km/h (0 Bft) 97,83 %
08.11.2019 17:10 7,8 C 5,0 C 4,4 C 87 % 1007,1 hPa 0,0 l/m 0 min 0 min 0 W/m 0,0 km/h (0 Bft) 97,87 %
08.11.2019 17:12 7,8 C 5,6 C 4,4 C 87 % 1007,2 hPa 0,0 l/m 0 min 0 min 0 W/m 0,0 km/h (0 Bft) 95,74 %
08.11.2019 17:14 7,7 C 5,6 C 4,4 C 87 % 1007,2 hPa 0,0 l/m 0 min 0 min 0 W/m 0,0 km/h (0 Bft) 97,87 %
08.11.2019 17:16 7,7 C 5,6 C 3,9 C 87 % 1007,2 hPa 0,0 l/m 0 min 0 min 0 W/m 0,0 km/h (0 Bft) 100,00 %
08.11.2019 17:18 7,6 C 5,0 C 3,9 C 87 % 1007,2 hPa 0,0 l/m 0 min 0 min 0 W/m 0,0 km/h (0 Bft) 100,00 %
08.11.2019 17:20 7,6 C 5,0 C 3,9 C 87 % 1007,1 hPa 0,0 l/m 0 min 0 min 0 W/m 0,0 km/h (0 Bft) 97,83 %
08.11.2019 17:22 7,5 C 5,0 C 3,9 C 88 % 1007,2 hPa 0,0 l/m 0 min 0 min 0 W/m 0,0 km/h (0 Bft) 97,87 %
08.11.2019 17:24 7,4 C 5,0 C 3,9 C 88 % 1007,2 hPa 0,0 l/m 0 min 0 min 0 W/m 0,0 km/h (0 Bft) 100,00 %
08.11.2019 17:26 7,3 C 5,0 C 3,9 C 88 % 1007,2 hPa 0,0 l/m 0 min 0 min 0 W/m 0,0 km/h (0 Bft) 100,00 %
08.11.2019 17:28 7,3 C 4,4 C 3,9 C 88 % 1007,2 hPa 0,0 l/m 0 min 0 min 0 W/m 0,0 km/h (0 Bft) 100,00 %
08.11.2019 17:30 7,2 C 4,4 C 3,9 C 88 % 1007,3 hPa 0,0 l/m 0 min 0 min 0 W/m 0,0 km/h (0 Bft) 100,00 %
08.11.2019 17:32 7,2 C 4,4 C 3,9 C 88 % 1007,3 hPa 0,0 l/m 0 min 0 min 0 W/m 0,0 km/h (0 Bft) 100,00 %
08.11.2019 17:34 7,1 C 4,4 C 3,9 C 88 % 1007,3 hPa 0,0 l/m 0 min 0 min 0 W/m 0,0 km/h (0 Bft) 97,87 %
08.11.2019 17:36 7,1 C 4,4 C 3,9 C 89 % 1007,3 hPa 0,0 l/m 0 min 0 min 0 W/m 0,0 km/h (0 Bft) 97,87 %
08.11.2019 17:38 6,9 C 4,4 C 3,9 C 88 % 1007,3 hPa 0,0 l/m 0 min 0 min 0 W/m 0,0 km/h (0 Bft) 95,74 %
08.11.2019 17:40 6,9 C 4,4 C 3,9 C 89 % 1007,3 hPa 0,0 l/m 0 min 0 min 0 W/m 0,0 km/h (0 Bft) 95,74 %
08.11.2019 17:42 6,8 C 4,4 C 3,9 C 89 % 1007,3 hPa 0,0 l/m 0 min 0 min 0 W/m 0,0 km/h (0 Bft) 97,83 %
08.11.2019 17:44 6,8 C 4,4 C 3,3 C 89 % 1007,3 hPa 0,0 l/m 0 min 0 min 0 W/m 0,0 km/h (0 Bft) 97,87 %
08.11.2019 17:46 6,7 C 4,4 C 3,3 C 89 % 1007,3 hPa 0,0 l/m 0 min 0 min 0 W/m 0,0 km/h (0 Bft) 97,87 %
08.11.2019 17:48 6,7 C 4,4 C 3,3 C 89 % 1007,3 hPa 0,0 l/m 0 min 0 min 0 W/m 0,0 km/h (0 Bft) 97,87 %
08.11.2019 17:50 6,6 C 4,4 C 3,3 C 89 % 1007,4 hPa 0,0 l/m 0 min 0 min 0 W/m 0,0 km/h (0 Bft) 97,87 %
08.11.2019 17:52 6,6 C 3,9 C 3,3 C 89 % 1007,4 hPa 0,0 l/m 0 min 0 min 0 W/m 0,0 km/h (0 Bft) 97,87 %
08.11.2019 17:54 6,6 C 3,9 C 3,3 C 90 % 1007,4 hPa 0,0 l/m 0 min 0 min 0 W/m 0,0 km/h (0 Bft) 97,83 %
08.11.2019 17:56 6,5 C 3,9 C 3,3 C 90 % 1007,4 hPa 0,0 l/m 0 min 0 min 0 W/m 0,0 km/h (0 Bft) 95,74 %
08.11.2019 17:58 6,4 C 3,9 C 3,3 C 90 % 1007,4 hPa 0,0 l/m 0 min 0 min 0 W/m 0,0 km/h (0 Bft) 55,32 %
08.11.2019 18:00 6,4 C 3,9 C 3,3 C 90 % 1007,4 hPa 0,0 l/m 0 min 0 min 0 W/m 0,0 km/h (0 Bft) 97,83 %
08.11.2019 18:02 6,3 C 3,9 C 3,3 C 90 % 1007,4 hPa 0,0 l/m 0 min 0 min 0 W/m 0,0 km/h (0 Bft) 97,87 %
08.11.2019 18:04 6,3 C 3,9 C 3,3 C 90 % 1007,5 hPa 0,0 l/m 0 min 0 min 0 W/m 0,0 km/h (0 Bft) 97,87 %
08.11.2019 18:08 6,2 C 3,9 C 3,3 C 90 % 1007,4 hPa 0,0 l/m 0 min 0 min 0 W/m 0,0 km/h (0 Bft) 97,85 %
08.11.2019 18:10 6,1 C 3,9 C 3,3 C 90 % 1007,5 hPa 0,0 l/m 0 min 0 min 0 W/m 0,0 km/h (0 Bft) 97,87 %
08.11.2019 18:12 6,1 C 3,9 C 3,3 C 90 % 1007,5 hPa 0,0 l/m 0 min 0 min 0 W/m 0,0 km/h (0 Bft) 95,74 %
08.11.2019 18:14 6,1 C 3,9 C 3,3 C 90 % 1007,5 hPa 0,0 l/m 0 min 0 min 0 W/m 0,0 km/h (0 Bft) 97,87 %
08.11.2019 18:16 6,1 C 3,9 C 3,3 C 91 % 1007,5 hPa 0,0 l/m 0 min 0 min 0 W/m 0,0 km/h (0 Bft) 97,87 %
08.11.2019 18:18 6,0 C 3,9 C 3,3 C 91 % 1007,5 hPa 0,0 l/m 0 min 0 min 0 W/m 0,0 km/h (0 Bft) 95,65 %
08.11.2019 18:20 5,9 C 3,9 C 3,3 C 90 % 1007,6 hPa 0,0 l/m 0 min 0 min 0 W/m 0,0 km/h (0 Bft) 95,74 %
08.11.2019 18:22 5,9 C 3,9 C 3,3 C 91 % 1007,6 hPa 0,0 l/m 0 min 0 min 0 W/m 0,0 km/h (0 Bft) 93,62 %
08.11.2019 18:24 5,9 C 3,9 C 3,3 C 91 % 1007,6 hPa 0,0 l/m 0 min 0 min 0 W/m 0,0 km/h (0 Bft) 97,87 %
08.11.2019 18:26 5,8 C 4,4 C 3,3 C 91 % 1007,6 hPa 0,0 l/m 0 min 0 min 0 W/m 0,0 km/h (0 Bft) 95,74 %
08.11.2019 18:28 5,8 C 3,9 C 3,3 C 91 % 1007,6 hPa 0,0 l/m 0 min 0 min 0 W/m 0,0 km/h (0 Bft) 95,74 %
08.11.2019 18:30 5,8 C 3,9 C 3,3 C 91 % 1007,6 hPa 0,0 l/m 0 min 0 min 0 W/m 0,0 km/h (0 Bft) 93,48 %
08.11.2019 18:32 5,8 C 3,9 C 3,3 C 91 % 1007,6 hPa 0,0 l/m 0 min 0 min 0 W/m 0,0 km/h (0 Bft) 95,74 %
08.11.2019 18:34 5,7 C 3,9 C 2,8 C 91 % 1007,6 hPa 0,0 l/m 0 min 0 min 0 W/m 0,0 km/h (0 Bft) 95,74 %
08.11.2019 18:36 5,7 C 3,9 C 2,8 C 91 % 1007,6 hPa 0,0 l/m 0 min 0 min 0 W/m 0,0 km/h (0 Bft) 93,62 %
08.11.2019 18:38 5,7 C 3,3 C 2,8 C 91 % 1007,6 hPa 0,0 l/m 0 min 0 min 0 W/m 0,0 km/h (0 Bft) 95,74 %
08.11.2019 18:40 5,6 C 3,3 C 2,8 C 91 % 1007,6 hPa 0,0 l/m 0 min 0 min 0 W/m 0,0 km/h (0 Bft) 93,62 %
08.11.2019 18:42 5,6 C 3,3 C 2,8 C 91 % 1007,6 hPa 0,0 l/m 0 min 0 min 0 W/m 0,0 km/h (0 Bft) 97,83 %
08.11.2019 18:44 5,6 C 3,3 C 2,8 C 91 % 1007,7 hPa 0,0 l/m 0 min 0 min 0 W/m 0,0 km/h (0 Bft) 97,87 %
08.11.2019 18:46 5,5 C 3,3 C 2,8 C 91 % 1007,6 hPa 0,0 l/m 0 min 0 min 0 W/m 0,0 km/h (0 Bft) 97,87 %
08.11.2019 18:48 5,5 C 3,3 C 2,8 C 91 % 1007,6 hPa 0,0 l/m 0 min 0 min 0 W/m 0,0 km/h (0 Bft) 91,49 %
08.11.2019 18:50 5,4 C 3,3 C 2,8 C 91 % 1007,6 hPa 0,0 l/m 0 min 0 min 0 W/m 0,0 km/h (0 Bft) 97,87 %
08.11.2019 18:52 5,4 C 2,8 C 2,2 C 91 % 1007,6 hPa 0,0 l/m 0 min 0 min 0 W/m 0,0 km/h (0 Bft) 97,83 %
08.11.2019 18:54 5,3 C 2,8 C 2,2 C 91 % 1007,6 hPa 0,0 l/m 0 min 0 min 0 W/m 0,0 km/h (0 Bft) 95,74 %
08.11.2019 18:56 5,3 C 2,8 C 2,2 C 91 % 1007,6 hPa 0,0 l/m 0 min 0 min 0 W/m 0,0 km/h (0 Bft) 100,00 %
08.11.2019 18:58 5,3 C 2,8 C 2,2 C 92 % 1007,7 hPa 0,0 l/m 0 min 0 min 0 W/m 0,0 km/h (0 Bft) 100,00 %
08.11.2019 19:00 5,2 C 2,8 C 2,2 C 92 % 1007,7 hPa 0,0 l/m 0 min 0 min 0 W/m 0,0 km/h (0 Bft) 100,00 %
08.11.2019 19:02 5,2 C 2,8 C 2,2 C 92 % 1007,7 hPa 0,0 l/m 0 min 0 min 0 W/m 0,0 km/h (0 Bft) 100,00 %
08.11.2019 19:04 5,1 C 2,8 C 2,2 C 92 % 1007,7 hPa 0,0 l/m 0 min 0 min 0 W/m 0,0 km/h (0 Bft) 97,83 %
08.11.2019 19:06 5,1 C 2,8 C 2,2 C 92 % 1007,7 hPa 0,0 l/m 0 min 0 min 0 W/m 0,0 km/h (0 Bft) 100,00 %
08.11.2019 19:08 5,1 C 2,8 C 2,2 C 92 % 1007,7 hPa 0,0 l/m 0 min 0 min 0 W/m 0,0 km/h (0 Bft) 100,00 %
08.11.2019 19:10 5,0 C 2,8 C 2,2 C 92 % 1007,7 hPa 0,0 l/m 0 min 0 min 0 W/m 0,0 km/h (0 Bft) 100,00 %
08.11.2019 19:12 4,9 C 2,8 C 2,2 C 92 % 1007,8 hPa 0,0 l/m 0 min 0 min 0 W/m 0,0 km/h (0 Bft) 100,00 %
08.11.2019 19:14 4,9 C 2,8 C 2,2 C 92 % 1007,8 hPa 0,0 l/m 0 min 0 min 0 W/m 0,0 km/h (0 Bft) 100,00 %
08.11.2019 19:16 4,9 C 2,8 C 2,2 C 92 % 1007,8 hPa 0,0 l/m 0 min 0 min 0 W/m 0,0 km/h (0 Bft) 97,83 %
08.11.2019 19:18 4,8 C 2,8 C 2,2 C 92 % 1007,8 hPa 0,0 l/m 0 min 0 min 0 W/m 0,0 km/h (0 Bft) 100,00 %
08.11.2019 19:20 4,8 C 2,8 C 2,2 C 92 % 1007,9 hPa 0,0 l/m 0 min 0 min 0 W/m 0,0 km/h (0 Bft) 100,00 %
08.11.2019 19:22 4,8 C 2,8 C 2,2 C 92 % 1007,9 hPa 0,0 l/m 0 min 0 min 0 W/m 0,0 km/h (0 Bft) 97,87 %
08.11.2019 19:24 4,7 C 2,8 C 2,2 C 92 % 1007,9 hPa 0,0 l/m 0 min 0 min 0 W/m 0,0 km/h (0 Bft) 100,00 %
08.11.2019 19:26 4,7 C 2,8 C 2,2 C 92 % 1007,9 hPa 0,0 l/m 0 min 0 min 0 W/m 0,0 km/h (0 Bft) 100,00 %
08.11.2019 19:28 4,6 C 2,8 C 2,2 C 92 % 1007,9 hPa 0,0 l/m 0 min 0 min 0 W/m 0,0 km/h (0 Bft) 100,00 %
08.11.2019 19:30 4,6 C 2,8 C 2,2 C 92 % 1007,9 hPa 0,0 l/m 0 min 0 min 0 W/m 0,0 km/h (0 Bft) 100,00 %
08.11.2019 19:32 4,6 C 2,2 C 2,2 C 92 % 1007,9 hPa 0,0 l/m 0 min 0 min 0 W/m 0,0 km/h (0 Bft) 100,00 %
08.11.2019 19:34 4,5 C 2,2 C 1,7 C 92 % 1007,9 hPa 0,0 l/m 0 min 0 min 0 W/m 0,0 km/h (0 Bft) 100,00 %
08.11.2019 19:36 4,5 C 2,2 C 1,7 C 92 % 1007,9 hPa 0,0 l/m 0 min 0 min 0 W/m 0,0 km/h (0 Bft) 100,00 %
08.11.2019 19:38 4,4 C 2,2 C 1,7 C 92 % 1007,9 hPa 0,0 l/m 0 min 0 min 0 W/m 0,0 km/h (0 Bft) 95,74 %
08.11.2019 19:40 4,4 C 2,2 C 1,7 C 92 % 1008,0 hPa 0,0 l/m 0 min 0 min 0 W/m 0,0 km/h (0 Bft) 100,00 %
08.11.2019 19:42 4,4 C 2,2 C 1,7 C 92 % 1008,0 hPa 0,0 l/m 0 min 0 min 0 W/m 0,0 km/h (0 Bft) 97,87 %
08.11.2019 19:44 4,3 C 2,2 C 1,7 C 92 % 1008,0 hPa 0,0 l/m 0 min 0 min 0 W/m 0,0 km/h (0 Bft) 100,00 %
08.11.2019 19:46 4,3 C 2,2 C 1,7 C 92 % 1008,0 hPa 0,0 l/m 0 min 0 min 0 W/m 0,0 km/h (0 Bft) 97,87 %
08.11.2019 19:48 4,3 C 2,8 C 2,2 C 92 % 1008,0 hPa 0,0 l/m 0 min 0 min 0 W/m 3,2 km/h (1 Bft) 100,00 %
08.11.2019 19:50 4,3 C 2,8 C 2,2 C 92 % 1008,0 hPa 0,0 l/m 0 min 0 min 0 W/m 0,0 km/h (0 Bft) 100,00 %
08.11.2019 19:52 4,2 C 2,2 C 2,2 C 92 % 1008,0 hPa 0,0 l/m 0 min 0 min 0 W/m 0,0 km/h (0 Bft) 97,87 %
08.11.2019 19:54 4,2 C 2,8 C 2,2 C 92 % 1008,0 hPa 0,0 l/m 0 min 0 min 0 W/m 0,0 km/h (0 Bft) 100,00 %
08.11.2019 19:56 4,1 C 2,8 C 1,7 C 92 % 1008,0 hPa 0,0 l/m 0 min 0 min 0 W/m 0,0 km/h (0 Bft) 100,00 %
08.11.2019 19:58 4,1 C 2,8 C 1,7 C 92 % 1008,0 hPa 0,0 l/m 0 min 0 min 0 W/m 0,0 km/h (0 Bft) 100,00 %
08.11.2019 20:00 4,1 C 2,2 C 1,7 C 92 % 1008,1 hPa 0,0 l/m 0 min 0 min 0 W/m 0,0 km/h (0 Bft) 97,87 %
08.11.2019 20:02 4,1 C 2,2 C 1,7 C 92 % 1008,1 hPa 0,0 l/m 0 min 0 min 0 W/m 0,0 km/h (0 Bft) 95,74 %
08.11.2019 20:04 4,1 C 2,2 C 1,7 C 92 % 1008,1 hPa 0,0 l/m 0 min 0 min 0 W/m 0,0 km/h (0 Bft) 100,00 %
08.11.2019 20:06 4,0 C 2,2 C 1,7 C 92 % 1008,1 hPa 0,0 l/m 0 min 0 min 0 W/m 0,0 km/h (0 Bft) 95,83 %
08.11.2019 20:08 4,0 C 2,2 C 1,7 C 92 % 1008,1 hPa 0,0 l/m 0 min 0 min 0 W/m 0,0 km/h (0 Bft) 97,87 %
08.11.2019 20:10 3,9 C 2,2 C 1,7 C 92 % 1008,1 hPa 0,0 l/m 0 min 0 min 0 W/m 0,0 km/h (0 Bft) 97,92 %
08.11.2019 20:12 3,9 C 2,2 C 1,7 C 92 % 1008,1 hPa 0,0 l/m 0 min 0 min 0 W/m 0,0 km/h (0 Bft) 97,87 %
08.11.2019 20:14 3,9 C 2,2 C 1,7 C 92 % 1008,1 hPa 0,0 l/m 0 min 0 min 0 W/m 0,0 km/h (0 Bft) 95,74 %
08.11.2019 20:16 3,9 C 2,2 C 1,7 C 92 % 1008,2 hPa 0,0 l/m 0 min 0 min 0 W/m 0,0 km/h (0 Bft) 93,62 %
08.11.2019 20:18 3,8 C 2,2 C 1,7 C 92 % 1008,2 hPa 0,0 l/m 0 min 0 min 0 W/m 0,0 km/h (0 Bft) 97,92 %
08.11.2019 20:20 3,8 C 2,2 C 1,7 C 92 % 1008,2 hPa 0,0 l/m 0 min 0 min 0 W/m 0,0 km/h (0 Bft) 95,74 %
08.11.2019 20:22 3,8 C 2,2 C 1,7 C 92 % 1008,2 hPa 0,0 l/m 0 min 0 min 0 W/m 0,0 km/h (0 Bft) 97,87 %
08.11.2019 20:24 3,8 C 2,2 C 1,7 C 92 % 1008,2 hPa 0,0 l/m 0 min 0 min 0 W/m 0,0 km/h (0 Bft) 97,87 %
08.11.2019 20:26 3,7 C 2,8 C 1,7 C 92 % 1008,2 hPa 0,0 l/m 0 min 0 min 0 W/m 3,2 km/h (1 Bft) 91,49 %
08.11.2019 20:28 3,7 C 2,2 C 1,7 C 92 % 1008,3 hPa 0,0 l/m 0 min 0 min 0 W/m 0,0 km/h (0 Bft) 95,74 %
08.11.2019 20:30 3,7 C 2,2 C 1,7 C 92 % 1008,3 hPa 0,0 l/m 0 min 0 min 0 W/m 0,0 km/h (0 Bft) 95,74 %
08.11.2019 20:32 3,7 C 2,2 C 1,7 C 92 % 1008,3 hPa 0,0 l/m 0 min 0 min 0 W/m 0,0 km/h (0 Bft) 95,65 %
08.11.2019 20:34 3,7 C 2,2 C 1,7 C 92 % 1008,3 hPa 0,0 l/m 0 min 0 min 0 W/m 0,0 km/h (0 Bft) 95,74 %
08.11.2019 20:36 3,6 C 1,7 C 1,7 C 92 % 1008,3 hPa 0,0 l/m 0 min 0 min 0 W/m 0,0 km/h (0 Bft) 95,74 %
08.11.2019 20:38 3,6 C 1,7 C 1,7 C 92 % 1008,3 hPa 0,0 l/m 0 min 0 min 0 W/m 0,0 km/h (0 Bft) 97,87 %
08.11.2019 20:40 3,6 C 1,7 C 1,7 C 92 % 1008,3 hPa 0,0 l/m 0 min 0 min 0 W/m 0,0 km/h (0 Bft) 97,87 %
08.11.2019 20:42 3,6 C 2,2 C 1,7 C 92 % 1008,3 hPa 0,0 l/m 0 min 0 min 0 W/m 0,0 km/h (0 Bft) 97,87 %
08.11.2019 20:44 3,6 C 2,2 C 1,7 C 92 % 1008,3 hPa 0,0 l/m 0 min 0 min 0 W/m 0,0 km/h (0 Bft) 95,65 %
08.11.2019 20:46 3,6 C 2,2 C 1,7 C 92 % 1008,3 hPa 0,0 l/m 0 min 0 min 0 W/m 0,0 km/h (0 Bft) 97,87 %
08.11.2019 20:48 3,6 C 2,2 C 1,7 C 92 % 1008,3 hPa 0,0 l/m 0 min 0 min 0 W/m 0,0 km/h (0 Bft) 97,87 %
08.11.2019 20:50 3,5 C 2,2 C 1,7 C 93 % 1008,4 hPa 0,0 l/m 0 min 0 min 0 W/m 0,0 km/h (0 Bft) 97,87 %
08.11.2019 20:52 3,5 C 2,2 C 1,7 C 93 % 1008,4 hPa 0,0 l/m 0 min 0 min 0 W/m 0,0 km/h (0 Bft) 97,87 %
08.11.2019 20:54 3,5 C 2,2 C 1,7 C 93 % 1008,4 hPa 0,0 l/m 0 min 0 min 0 W/m 0,0 km/h (0 Bft) 97,56 %
08.11.2019 20:56 3,5 C 2,2 C 1,7 C 92 % 1008,5 hPa 0,0 l/m 0 min 0 min 0 W/m 0,0 km/h (0 Bft) 97,87 %
08.11.2019 20:58 3,4 C 2,2 C 1,7 C 92 % 1008,4 hPa 0,0 l/m 0 min 0 min 0 W/m 0,0 km/h (0 Bft) 97,87 %
08.11.2019 21:00 3,4 C 1,7 C 1,7 C 93 % 1008,4 hPa 0,0 l/m 0 min 0 min 0 W/m 0,0 km/h (0 Bft) 97,92 %
08.11.2019 21:02 3,4 C 1,7 C 1,7 C 93 % 1008,5 hPa 0,0 l/m 0 min 0 min 0 W/m 0,0 km/h (0 Bft) 97,96 %
08.11.2019 21:04 3,4 C 1,7 C 1,7 C 93 % 1008,5 hPa 0,0 l/m 0 min 0 min 0 W/m 0,0 km/h (0 Bft) 97,96 %
08.11.2019 21:06 3,4 C 1,7 C 1,1 C 93 % 1008,4 hPa 0,0 l/m 0 min 0 min 0 W/m 0,0 km/h (0 Bft) 97,87 %
08.11.2019 21:08 3,4 C 1,7 C 1,1 C 93 % 1008,4 hPa 0,0 l/m 0 min 0 min 0 W/m 0,0 km/h (0 Bft) 97,83 %
08.11.2019 21:10 3,4 C 1,7 C 1,1 C 93 % 1008,4 hPa 0,0 l/m 0 min 0 min 0 W/m 0,0 km/h (0 Bft) 95,74 %
08.11.2019 21:12 3,4 C 1,7 C 1,1 C 93 % 1008,4 hPa 0,0 l/m 0 min 0 min 0 W/m 0,0 km/h (0 Bft) 97,87 %
08.11.2019 21:14 3,4 C 1,1 C 1,1 C 93 % 1008,4 hPa 0,0 l/m 0 min 0 min 0 W/m 0,0 km/h (0 Bft) 93,62 %
08.11.2019 21:16 3,3 C 1,1 C 1,1 C 93 % 1008,5 hPa 0,0 l/m 0 min 0 min 0 W/m 0,0 km/h (0 Bft) 97,87 %
08.11.2019 21:18 3,3 C 1,1 C 1,1 C 93 % 1008,4 hPa 0,0 l/m 0 min 0 min 0 W/m 0,0 km/h (0 Bft) 93,62 %
08.11.2019 21:20 3,3 C 1,1 C 1,1 C 93 % 1008,4 hPa 0,0 l/m 0 min 0 min 0 W/m 0,0 km/h (0 Bft) 95,65 %
08.11.2019 21:22 3,3 C 1,1 C 1,1 C 93 % 1008,4 hPa 0,0 l/m 0 min 0 min 0 W/m 0,0 km/h (0 Bft) 95,74 %
08.11.2019 21:24 3,3 C 1,1 C 1,1 C 93 % 1008,4 hPa 0,0 l/m 0 min 0 min 0 W/m 0,0 km/h (0 Bft) 95,24 %
08.11.2019 21:26 3,2 C 1,7 C 1,1 C 93 % 1008,5 hPa 0,0 l/m 0 min 0 min 0 W/m 0,0 km/h (0 Bft) 95,74 %
08.11.2019 21:28 3,2 C 1,7 C 1,1 C 93 % 1008,5 hPa 0,0 l/m 0 min 0 min 0 W/m 0,0 km/h (0 Bft) 95,83 %
08.11.2019 21:30 3,2 C 1,7 C 1,1 C 93 % 1008,5 hPa 0,0 l/m 0 min 0 min 0 W/m 0,0 km/h (0 Bft) 95,74 %
08.11.2019 21:32 3,2 C 1,7 C 1,1 C 93 % 1008,5 hPa 0,0 l/m 0 min 0 min 0 W/m 0,0 km/h (0 Bft) 95,74 %
08.11.2019 21:34 3,2 C 2,2 C 1,1 C 93 % 1008,5 hPa 0,0 l/m 0 min 0 min 0 W/m 0,0 km/h (0 Bft) 95,83 %
08.11.2019 21:36 3,1 C 2,2 C 1,1 C 93 % 1008,5 hPa 0,0 l/m 0 min 0 min 0 W/m 0,0 km/h (0 Bft) 95,65 %
08.11.2019 21:38 3,1 C 2,2 C 1,7 C 93 % 1008,5 hPa 0,0 l/m 0 min 0 min 0 W/m 3,2 km/h (1 Bft) 91,49 %
08.11.2019 21:40 3,1 C 1,7 C 1,7 C 93 % 1008,5 hPa 0,0 l/m 0 min 0 min 0 W/m 3,2 km/h (1 Bft) 93,75 %
08.11.2019 21:42 3,1 C 1,7 C 1,7 C 93 % 1008,5 hPa 0,0 l/m 0 min 0 min 0 W/m 0,0 km/h (0 Bft) 95,74 %
08.11.2019 21:44 3,1 C 1,7 C 1,1 C 93 % 1008,5 hPa 0,0 l/m 0 min 0 min 0 W/m 0,0 km/h (0 Bft) 95,83 %
08.11.2019 21:46 3,1 C 1,7 C 1,1 C 93 % 1008,5 hPa 0,0 l/m 0 min 0 min 0 W/m 3,2 km/h (1 Bft) 93,48 %
08.11.2019 21:48 3,1 C 1,7 C 1,1 C 93 % 1008,6 hPa 0,0 l/m 0 min 0 min 0 W/m 3,2 km/h (1 Bft) 91,67 %
08.11.2019 21:50 3,1 C 1,7 C 1,1 C 93 % 1008,5 hPa 0,0 l/m 0 min 0 min 0 W/m 0,0 km/h (0 Bft) 95,74 %
08.11.2019 21:52 3,1 C 1,7 C 1,1 C 93 % 1008,5 hPa 0,0 l/m 0 min 0 min 0 W/m 0,0 km/h (0 Bft) 97,87 %
08.11.2019 21:54 3,1 C 1,7 C 1,1 C 93 % 1008,6 hPa 0,0 l/m 0 min 0 min 0 W/m 0,0 km/h (0 Bft) 93,48 %
08.11.2019 21:56 3,0 C 1,7 C 1,1 C 93 % 1008,6 hPa 0,0 l/m 0 min 0 min 0 W/m 3,2 km/h (1 Bft) 93,62 %
08.11.2019 21:58 3,1 C 1,7 C 1,1 C 93 % 1008,6 hPa 0,0 l/m 0 min 0 min 0 W/m 0,0 km/h (0 Bft) 93,62 %
08.11.2019 22:00 3,0 C 1,7 C 1,1 C 93 % 1008,6 hPa 0,0 l/m 0 min 0 min 0 W/m 0,0 km/h (0 Bft) 95,74 %
08.11.2019 22:02 3,0 C 1,7 C 1,1 C 93 % 1008,5 hPa 0,0 l/m 0 min 0 min 0 W/m 0,0 km/h (0 Bft) 95,74 %
08.11.2019 22:04 3,0 C 1,7 C 1,1 C 93 % 1008,6 hPa 0,0 l/m 0 min 0 min 0 W/m 3,2 km/h (1 Bft) 93,62 %
08.11.2019 22:06 3,0 C 1,7 C 1,1 C 93 % 1008,5 hPa 0,0 l/m 0 min 0 min 0 W/m 3,2 km/h (1 Bft) 95,12 %
08.11.2019 22:08 3,0 C 1,7 C 1,1 C 93 % 1008,6 hPa 0,0 l/m 0 min 0 min 0 W/m 0,0 km/h (0 Bft) 93,75 %
08.11.2019 22:10 3,0 C 1,7 C 1,1 C 93 % 1008,5 hPa 0,0 l/m 0 min 0 min 0 W/m 0,0 km/h (0 Bft) 95,83 %
08.11.2019 22:12 3,0 C 1,7 C 1,1 C 93 % 1008,5 hPa 0,0 l/m 0 min 0 min 0 W/m 0,0 km/h (0 Bft) 95,65 %
08.11.2019 22:14 3,0 C 1,7 C 1,1 C 93 % 1008,5 hPa 0,0 l/m 0 min 0 min 0 W/m 0,0 km/h (0 Bft) 95,83 %
08.11.2019 22:16 2,9 C 1,7 C 1,1 C 93 % 1008,5 hPa 0,0 l/m 0 min 0 min 0 W/m 0,0 km/h (0 Bft) 95,83 %
08.11.2019 22:18 2,9 C 1,7 C 1,1 C 93 % 1008,5 hPa 0,0 l/m 0 min 0 min 0 W/m 0,0 km/h (0 Bft) 100,00 %
08.11.2019 22:20 2,9 C 1,7 C 1,1 C 93 % 1008,5 hPa 0,0 l/m 0 min 0 min 0 W/m 0,0 km/h (0 Bft) 95,74 %
08.11.2019 22:22 2,9 C 1,7 C 1,1 C 93 % 1008,5 hPa 0,0 l/m 0 min 0 min 0 W/m 0,0 km/h (0 Bft) 100,00 %
08.11.2019 22:24 2,9 C 2,2 C 1,1 C 93 % 1008,6 hPa 0,0 l/m 0 min 0 min 0 W/m 0,0 km/h (0 Bft) 100,00 %
08.11.2019 22:26 2,9 C 2,2 C 1,1 C 93 % 1008,6 hPa 0,0 l/m 0 min 0 min 0 W/m 0,0 km/h (0 Bft) 100,00 %
08.11.2019 22:28 2,9 C 1,7 C 1,1 C 94 % 1008,5 hPa 0,0 l/m 0 min 0 min 0 W/m 0,0 km/h (0 Bft) 100,00 %
08.11.2019 22:30 2,9 C 1,7 C 1,1 C 94 % 1008,5 hPa 0,0 l/m 0 min 0 min 0 W/m 0,0 km/h (0 Bft) 100,00 %
08.11.2019 22:32 2,9 C 1,7 C 1,1 C 94 % 1008,5 hPa 0,0 l/m 0 min 0 min 0 W/m 0,0 km/h (0 Bft) 85,11 %
08.11.2019 22:34 2,9 C 1,7 C 1,1 C 94 % 1008,5 hPa 0,0 l/m 0 min 0 min 0 W/m 0,0 km/h (0 Bft) 56,67 %
08.11.2019 22:36 2,9 C 1,7 C 1,1 C 94 % 1008,5 hPa 0,0 l/m 0 min 0 min 0 W/m 0,0 km/h (0 Bft) 100,00 %
08.11.2019 22:38 2,9 C 1,7 C 1,1 C 94 % 1008,5 hPa 0,0 l/m 0 min 0 min 0 W/m 3,2 km/h (1 Bft) 100,00 %
08.11.2019 22:40 2,9 C 1,7 C 1,1 C 94 % 1008,5 hPa 0,0 l/m 0 min 0 min 0 W/m 0,0 km/h (0 Bft) 100,00 %
08.11.2019 22:42 2,9 C 1,7 C 1,1 C 94 % 1008,5 hPa 0,0 l/m 0 min 0 min 0 W/m 0,0 km/h (0 Bft) 100,00 %
08.11.2019 22:44 2,9 C 1,7 C 1,1 C 94 % 1008,5 hPa 0,0 l/m 0 min 0 min 0 W/m 0,0 km/h (0 Bft) 97,87 %
08.11.2019 22:46 2,9 C 2,2 C 1,1 C 94 % 1008,5 hPa 0,0 l/m 0 min 0 min 0 W/m 0,0 km/h (0 Bft) 100,00 %
08.11.2019 22:48 2,9 C 1,7 C 1,1 C 94 % 1008,6 hPa 0,0 l/m 0 min 0 min 0 W/m 0,0 km/h (0 Bft) 100,00 %
08.11.2019 22:50 2,9 C 1,7 C 1,1 C 94 % 1008,6 hPa 0,0 l/m 0 min 0 min 0 W/m 0,0 km/h (0 Bft) 100,00 %
08.11.2019 22:52 2,9 C 2,2 C 1,1 C 94 % 1008,6 hPa 0,0 l/m 0 min 0 min 0 W/m 3,2 km/h (1 Bft) 100,00 %
08.11.2019 22:54 2,9 C 1,7 C 1,1 C 94 % 1008,6 hPa 0,0 l/m 0 min 0 min 0 W/m 0,0 km/h (0 Bft) 100,00 %
08.11.2019 22:56 2,9 C 1,7 C 1,1 C 94 % 1008,6 hPa 0,0 l/m 0 min 0 min 0 W/m 0,0 km/h (0 Bft) 100,00 %
08.11.2019 22:58 2,9 C 1,7 C 1,1 C 94 % 1008,6 hPa 0,0 l/m 0 min 0 min 0 W/m 0,0 km/h (0 Bft) 100,00 %
08.11.2019 23:00 2,9 C 1,7 C 1,1 C 94 % 1008,6 hPa 0,0 l/m 0 min 0 min 0 W/m 0,0 km/h (0 Bft) 100,00 %
08.11.2019 23:02 2,9 C 1,7 C 1,1 C 94 % 1008,6 hPa 0,0 l/m 0 min 0 min 0 W/m 0,0 km/h (0 Bft) 100,00 %
08.11.2019 23:04 2,9 C 1,1 C 1,1 C 94 % 1008,7 hPa 0,0 l/m 0 min 0 min 0 W/m 0,0 km/h (0 Bft) 100,00 %
08.11.2019 23:06 2,9 C 1,1 C 1,1 C 94 % 1008,6 hPa 0,0 l/m 0 min 0 min 0 W/m 0,0 km/h (0 Bft) 97,87 %
08.11.2019 23:08 2,9 C 1,1 C 1,1 C 94 % 1008,6 hPa 0,0 l/m 0 min 0 min 0 W/m 0,0 km/h (0 Bft) 100,00 %
08.11.2019 23:10 2,9 C 1,1 C 0,6 C 94 % 1008,6 hPa 0,0 l/m 0 min 0 min 0 W/m 0,0 km/h (0 Bft) 100,00 %
08.11.2019 23:12 2,9 C 1,1 C 0,6 C 94 % 1008,6 hPa 0,0 l/m 0 min 0 min 0 W/m 0,0 km/h (0 Bft) 100,00 %
08.11.2019 23:14 2,9 C 1,1 C 0,6 C 94 % 1008,6 hPa 0,0 l/m 0 min 0 min 0 W/m 0,0 km/h (0 Bft) 100,00 %
08.11.2019 23:16 2,8 C 1,1 C 0,6 C 94 % 1008,6 hPa 0,0 l/m 0 min 0 min 0 W/m 0,0 km/h (0 Bft) 100,00 %
08.11.2019 23:18 2,8 C 1,1 C 0,6 C 94 % 1008,6 hPa 0,0 l/m 0 min 0 min 0 W/m 0,0 km/h (0 Bft) 100,00 %
08.11.2019 23:20 2,8 C 1,1 C 0,6 C 94 % 1008,6 hPa 0,0 l/m 0 min 0 min 0 W/m 0,0 km/h (0 Bft) 100,00 %
08.11.2019 23:22 2,8 C 1,1 C 0,6 C 94 % 1008,6 hPa 0,0 l/m 0 min 0 min 0 W/m 0,0 km/h (0 Bft) 97,87 %
08.11.2019 23:24 2,8 C 0,6 C 0,6 C 94 % 1008,6 hPa 0,0 l/m 0 min 0 min 0 W/m 0,0 km/h (0 Bft) 100,00 %
08.11.2019 23:26 2,8 C 1,1 C 0,6 C 94 % 1008,6 hPa 0,0 l/m 0 min 0 min 0 W/m 0,0 km/h (0 Bft) 97,83 %
08.11.2019 23:28 2,8 C 1,1 C 0,6 C 94 % 1008,6 hPa 0,0 l/m 0 min 0 min 0 W/m 0,0 km/h (0 Bft) 100,00 %
08.11.2019 23:30 2,7 C 1,7 C 0,6 C 94 % 1008,6 hPa 0,0 l/m 0 min 0 min 0 W/m 0,0 km/h (0 Bft) 97,87 %
08.11.2019 23:32 2,7 C 1,7 C 0,6 C 94 % 1008,6 hPa 0,0 l/m 0 min 0 min 0 W/m 0,0 km/h (0 Bft) 100,00 %
08.11.2019 23:34 2,7 C 1,7 C 0,6 C 94 % 1008,6 hPa 0,0 l/m 0 min 0 min 0 W/m 0,0 km/h (0 Bft) 97,56 %
08.11.2019 23:36 2,7 C 1,1 C 0,6 C 95 % 1008,6 hPa 0,0 l/m 0 min 0 min 0 W/m 0,0 km/h (0 Bft) 97,87 %
08.11.2019 23:38 2,7 C 1,1 C 0,6 C 95 % 1008,6 hPa 0,0 l/m 0 min 0 min 0 W/m 0,0 km/h (0 Bft) 97,92 %
08.11.2019 23:40 2,6 C 1,1 C 0,6 C 95 % 1008,6 hPa 0,0 l/m 0 min 0 min 0 W/m 0,0 km/h (0 Bft) 97,92 %
08.11.2019 23:42 2,6 C 1,1 C 0,6 C 94 % 1008,7 hPa 0,0 l/m 0 min 0 min 0 W/m 0,0 km/h (0 Bft) 95,74 %
08.11.2019 23:44 2,6 C 1,1 C 0,6 C 94 % 1008,7 hPa 0,0 l/m 0 min 0 min 0 W/m 0,0 km/h (0 Bft) 97,87 %
08.11.2019 23:46 2,6 C 1,1 C 0,6 C 94 % 1008,7 hPa 0,0 l/m 0 min 0 min 0 W/m 0,0 km/h (0 Bft) 97,87 %
08.11.2019 23:48 2,6 C 1,1 C 0,6 C 94 % 1008,7 hPa 0,0 l/m 0 min 0 min 0 W/m 0,0 km/h (0 Bft) 97,92 %
08.11.2019 23:50 2,6 C 1,1 C 0,6 C 94 % 1008,7 hPa 0,0 l/m 0 min 0 min 0 W/m 0,0 km/h (0 Bft) 95,74 %
08.11.2019 23:52 2,6 C 1,1 C 0,6 C 94 % 1008,7 hPa 0,0 l/m 0 min 0 min 0 W/m 0,0 km/h (0 Bft) 97,14 %
08.11.2019 23:54 2,6 C 1,1 C 0,6 C 94 % 1008,7 hPa 0,0 l/m 0 min 0 min 0 W/m 0,0 km/h (0 Bft) 98,33 %
08.11.2019 23:56 2,5 C 0,6 C 0,6 C 94 % 1008,7 hPa 0,0 l/m 0 min 0 min 0 W/m 0,0 km/h (0 Bft) 97,87 %
08.11.2019 23:58 2,5 C 1,1 C 0,6 C 94 % 1008,7 hPa 0,0 l/m 0 min 0 min 0 W/m 0,0 km/h (0 Bft) 97,87 %
_ Min-Zeit 23:56 23:24 23:10 15:04 01:04 - - - - 01:00 07:32
Minimum _ 2,5 C 0,6 C 0,6 C 79 % 1003,5 hPa - - - - 0,0 km/h (0 Bft) 44,74 %
_ Max-Zeit 14:50 14:16 12:30 10:12 23:04 05:12 12:08 06:46 11:32 02:02 00:44
Maximum _ 10,9 C 16,1 C 9,4 C 99 % 1008,7 hPa 0,2 l/m 4 min 2 min 442 W/m 22,5 km/h
O (4 Bft)
100,00 %
Durchschnitt _ 5,3 C 5,2 C 3,6 C 92 % 1006,3 hPa #0,2 l/m #4:36 h #2 min. 176 W/m 5,5 km/h (1 Bft) 97,23 %
© 2019 W. Hausmann